Time,TemperatureF,DewpointF,PressureIn,WindDirection,WindDirectionDegrees,WindSpeedMPH,WindSpeedGustMPH,Humidity,HourlyPrecipIn,Conditions,Clouds,dailyrainin,SoftwareType,DateUTC
2013-04-08 00:00:00,26.4,23.4,29.79,North,357,3.1,3.1,88,0.00,,---,0.00,VWS V14.01,2013-04-08 06:00:00,
2013-04-08 00:01:00,26.2,23.2,29.79,NNW,340,3.1,4.0,88,0.00,,---,0.00,VWS V14.01,2013-04-08 06:01:00,
2013-04-08 00:02:00,26.2,23.2,29.79,North,349,3.1,4.0,88,0.00,,---,0.00,VWS V14.01,2013-04-08 06:02:00,
2013-04-08 00:05:00,26.2,23.2,29.79,North,9,2.7,5.4,88,0.00,,---,0.00,VWS V14.01,2013-04-08 06:05:00,
2013-04-08 00:06:00,26.2,23.2,29.79,North,357,0.0,5.4,88,0.00,,---,0.00,VWS V14.01,2013-04-08 06:06:00,
2013-04-08 00:07:00,26.2,22.9,29.79,North,353,2.7,5.4,87,0.00,,---,0.00,VWS V14.01,2013-04-08 06:07:00,
2013-04-08 00:10:00,26.1,22.7,29.79,NNW,346,3.6,6.3,87,0.00,,---,0.00,VWS V14.01,2013-04-08 06:10:00,
2013-04-08 00:11:00,26.1,22.7,29.79,North,350,3.6,6.3,87,0.00,,---,0.00,VWS V14.01,2013-04-08 06:11:00,
2013-04-08 00:12:00,26.1,22.7,29.79,North,0,4.0,6.3,87,0.00,,---,0.00,VWS V14.01,2013-04-08 06:12:00,
2013-04-08 00:15:00,25.9,22.3,29.79,NNW,337,5.4,5.4,86,0.00,,---,0.00,VWS V14.01,2013-04-08 06:15:00,
2013-04-08 00:17:00,25.9,22.3,29.79,NNW,344,3.6,5.4,86,0.00,,---,0.00,VWS V14.01,2013-04-08 06:17:00,
2013-04-08 00:18:00,25.9,22.3,29.79,NNW,342,2.7,5.4,86,0.00,,---,0.00,VWS V14.01,2013-04-08 06:18:00,
2013-04-08 00:20:00,25.9,22.0,29.79,North,353,4.0,5.4,85,0.00,,---,0.00,VWS V14.01,2013-04-08 06:20:00,
2013-04-08 00:22:00,25.9,22.0,29.79,North,353,2.7,5.4,85,0.00,,---,0.00,VWS V14.01,2013-04-08 06:22:00,
2013-04-08 00:23:00,25.9,22.0,29.79,North,353,2.7,5.4,85,0.00,,---,0.00,VWS V14.01,2013-04-08 06:23:00,
2013-04-08 00:26:00,25.7,21.8,29.79,NNW,341,4.0,6.3,85,0.00,,---,0.00,VWS V14.01,2013-04-08 06:26:00,
2013-04-08 00:27:00,25.7,21.8,29.79,North,9,3.6,6.3,85,0.00,,---,0.00,VWS V14.01,2013-04-08 06:27:00,
2013-04-08 00:28:00,25.7,21.8,29.79,North,0,3.6,6.3,85,0.00,,---,0.00,VWS V14.01,2013-04-08 06:28:00,
2013-04-08 00:31:00,25.7,21.8,29.79,NNW,337,2.2,2.2,85,0.00,,---,0.00,VWS V14.01,2013-04-08 06:31:00,
2013-04-08 00:32:00,25.5,21.4,29.79,North,353,2.7,4.0,84,0.00,,---,0.00,VWS V14.01,2013-04-08 06:32:00,
2013-04-08 00:33:00,25.5,21.4,29.79,North,357,5.8,5.8,84,0.00,,---,0.00,VWS V14.01,2013-04-08 06:33:00,
2013-04-08 00:36:00,25.5,21.4,29.79,NNW,346,3.1,5.8,84,0.00,,---,0.00,VWS V14.01,2013-04-08 06:36:00,
2013-04-08 00:37:00,25.3,21.2,29.79,North,353,2.7,5.8,84,0.00,,---,0.00,VWS V14.01,2013-04-08 06:37:00,
2013-04-08 00:38:00,25.3,21.2,29.79,North,353,0.0,5.8,84,0.00,,---,0.00,VWS V14.01,2013-04-08 06:38:00,
2013-04-08 00:41:00,25.3,20.9,29.79,North,349,2.2,5.8,83,0.00,,---,0.00,VWS V14.01,2013-04-08 06:41:00,
2013-04-08 00:42:00,25.3,20.9,29.79,NNW,339,2.7,5.8,83,0.00,,---,0.00,VWS V14.01,2013-04-08 06:42:00,
2013-04-08 00:44:00,25.3,20.9,29.79,NW,325,2.7,5.8,83,0.00,,---,0.00,VWS V14.01,2013-04-08 06:44:00,
2013-04-08 00:47:00,25.3,20.9,29.79,NW,311,3.1,3.1,83,0.00,,---,0.00,VWS V14.01,2013-04-08 06:47:00,
2013-04-08 00:48:00,25.3,20.9,29.79,NNW,331,2.7,3.6,83,0.00,,---,0.00,VWS V14.01,2013-04-08 06:48:00,
2013-04-08 00:49:00,25.3,20.9,29.79,North,353,3.1,4.0,83,0.00,,---,0.00,VWS V14.01,2013-04-08 06:49:00,
2013-04-08 00:52:00,25.2,20.7,29.79,North,350,3.6,4.0,83,0.00,,---,0.00,VWS V14.01,2013-04-08 06:52:00,
2013-04-08 00:53:00,25.2,20.7,29.79,NNW,344,3.1,4.0,83,0.00,,---,0.00,VWS V14.01,2013-04-08 06:53:00,
2013-04-08 00:54:00,25.2,20.5,29.79,NNW,344,5.8,5.8,82,0.00,,---,0.00,VWS V14.01,2013-04-08 06:54:00,
2013-04-08 00:57:00,25.0,20.3,29.79,NW,316,2.7,8.1,82,0.00,,---,0.00,VWS V14.01,2013-04-08 06:57:00,
2013-04-08 00:58:00,25.0,20.0,29.79,NW,325,2.7,8.1,81,0.00,,---,0.00,VWS V14.01,2013-04-08 06:58:00,
2013-04-08 00:59:00,25.0,20.0,29.79,NNW,336,3.1,8.1,81,0.00,,---,0.00,VWS V14.01,2013-04-08 06:59:00,
2013-04-08 01:02:00,24.8,19.8,29.82,NNW,345,2.7,4.9,81,0.00,,---,0.00,VWS V14.01,2013-04-08 07:02:00,
2013-04-08 01:03:00,24.8,19.8,29.82,NNW,343,2.7,4.9,81,0.00,,---,0.00,VWS V14.01,2013-04-08 07:03:00,
2013-04-08 01:05:00,24.8,19.8,29.82,NNW,341,2.7,4.9,81,0.00,,---,0.00,VWS V14.01,2013-04-08 07:05:00,
2013-04-08 01:07:00,24.8,19.8,29.82,NNW,330,0.0,4.9,81,0.00,,---,0.00,VWS V14.01,2013-04-08 07:07:00,
2013-04-08 01:09:00,24.8,19.8,29.82,NNW,341,2.7,4.9,81,0.00,,---,0.00,VWS V14.01,2013-04-08 07:09:00,
2013-04-08 01:10:00,24.8,19.8,29.82,NNW,341,2.7,4.9,81,0.00,,---,0.00,VWS V14.01,2013-04-08 07:10:00,
2013-04-08 01:13:00,24.8,19.8,29.82,NNW,344,2.2,5.4,81,0.00,,---,0.00,VWS V14.01,2013-04-08 07:13:00,
2013-04-08 01:14:00,24.6,19.6,29.82,NW,317,0.0,5.4,81,0.00,,---,0.00,VWS V14.01,2013-04-08 07:14:00,
2013-04-08 01:15:00,24.6,19.6,29.82,NW,317,2.2,2.7,81,0.00,,---,0.00,VWS V14.01,2013-04-08 07:15:00,
2013-04-08 01:18:00,24.6,19.3,29.82,NNW,329,0.0,5.4,80,0.00,,---,0.00,VWS V14.01,2013-04-08 07:18:00,
2013-04-08 01:19:00,24.6,19.3,29.82,NNW,337,0.0,5.4,80,0.00,,---,0.00,VWS V14.01,2013-04-08 07:19:00,
2013-04-08 01:20:00,24.6,19.3,29.82,North,0,2.7,5.4,80,0.00,,---,0.00,VWS V14.01,2013-04-08 07:20:00,
2013-04-08 01:23:00,24.6,19.3,29.82,North,0,2.7,5.4,80,0.00,,---,0.00,VWS V14.01,2013-04-08 07:23:00,
2013-04-08 01:24:00,24.6,19.3,29.82,North,0,3.1,5.4,80,0.00,,---,0.00,VWS V14.01,2013-04-08 07:24:00,
2013-04-08 01:25:00,24.4,19.2,29.82,NNW,343,2.7,5.4,80,0.00,,---,0.00,VWS V14.01,2013-04-08 07:25:00,
2013-04-08 01:26:00,24.4,19.2,29.82,NNW,346,3.1,5.4,80,0.00,,---,0.00,VWS V14.01,2013-04-08 07:26:00,
2013-04-08 01:29:00,24.4,18.9,29.82,NNW,329,2.2,5.4,79,0.00,,---,0.00,VWS V14.01,2013-04-08 07:29:00,
2013-04-08 01:30:00,24.4,18.9,29.82,NW,325,2.2,3.1,79,0.00,,---,0.00,VWS V14.01,2013-04-08 07:30:00,
2013-04-08 01:31:00,24.4,18.9,29.82,NNW,346,2.7,3.1,79,0.00,,---,0.00,VWS V14.01,2013-04-08 07:31:00,
2013-04-08 01:32:00,24.4,18.9,29.82,North,353,3.6,4.0,79,0.00,,---,0.00,VWS V14.01,2013-04-08 07:32:00,
2013-04-08 01:34:00,24.4,18.9,29.82,North,0,2.7,4.0,79,0.00,,---,0.00,VWS V14.01,2013-04-08 07:34:00,
2013-04-08 01:35:00,24.4,18.9,29.82,NNW,345,0.0,4.0,79,0.00,,---,0.00,VWS V14.01,2013-04-08 07:35:00,
2013-04-08 01:37:00,24.4,18.9,29.82,North,8,2.7,4.0,79,0.00,,---,0.00,VWS V14.01,2013-04-08 07:37:00,
2013-04-08 01:40:00,24.3,18.7,29.82,North,0,2.7,4.0,79,0.00,,---,0.00,VWS V14.01,2013-04-08 07:40:00,
2013-04-08 01:42:00,24.3,18.7,29.82,North,357,2.7,4.0,79,0.00,,---,0.00,VWS V14.01,2013-04-08 07:42:00,
2013-04-08 01:45:00,24.3,18.7,29.82,North,0,2.7,4.0,79,0.00,,---,0.00,VWS V14.01,2013-04-08 07:45:00,
2013-04-08 01:46:00,24.3,18.7,29.82,NNW,340,4.0,4.9,79,0.00,,---,0.00,VWS V14.01,2013-04-08 07:46:00,
2013-04-08 01:47:00,24.3,18.4,29.82,North,7,4.0,4.9,78,0.00,,---,0.00,VWS V14.01,2013-04-08 07:47:00,
2013-04-08 01:50:00,24.1,18.2,29.82,North,353,2.7,4.9,78,0.00,,---,0.00,VWS V14.01,2013-04-08 07:50:00,
2013-04-08 01:52:00,24.1,18.2,29.82,North,5,4.5,5.8,78,0.00,,---,0.00,VWS V14.01,2013-04-08 07:52:00,
2013-04-08 01:53:00,24.1,18.2,29.82,NNE,15,4.9,5.8,78,0.00,,---,0.00,VWS V14.01,2013-04-08 07:53:00,
2013-04-08 01:55:00,24.1,17.9,29.82,NNW,340,3.6,5.8,77,0.00,,---,0.00,VWS V14.01,2013-04-08 07:55:00,
2013-04-08 01:57:00,24.1,17.9,29.82,North,0,4.0,5.8,77,0.00,,---,0.00,VWS V14.01,2013-04-08 07:57:00,
2013-04-08 01:58:00,24.1,17.9,29.82,North,349,2.7,5.8,77,0.00,,---,0.00,VWS V14.01,2013-04-08 07:58:00,
2013-04-08 02:00:00,23.9,17.8,29.82,NNW,330,2.2,3.6,77,0.00,,---,0.00,VWS V14.01,2013-04-08 08:00:00,
2013-04-08 02:02:00,23.9,17.8,29.82,North,11,2.7,3.6,77,0.00,,---,0.00,VWS V14.01,2013-04-08 08:02:00,
2013-04-08 02:03:00,23.9,17.5,29.82,North,0,2.7,5.4,76,0.00,,---,0.00,VWS V14.01,2013-04-08 08:03:00,
2013-04-08 02:06:00,23.9,17.5,29.82,North,349,2.2,5.4,76,0.00,,---,0.00,VWS V14.01,2013-04-08 08:06:00,
2013-04-08 02:07:00,23.7,17.3,29.82,North,350,0.0,5.4,76,0.00,,---,0.00,VWS V14.01,2013-04-08 08:07:00,
2013-04-08 02:08:00,23.7,17.3,29.82,NNW,334,0.0,5.4,76,0.00,,---,0.00,VWS V14.01,2013-04-08 08:08:00,
2013-04-08 02:11:00,23.7,17.3,29.82,North,0,3.6,5.4,76,0.00,,---,0.00,VWS V14.01,2013-04-08 08:11:00,
2013-04-08 02:12:00,23.7,17.3,29.82,North,357,3.6,5.4,76,0.00,,---,0.00,VWS V14.01,2013-04-08 08:12:00,
2013-04-08 02:13:00,23.7,17.3,29.82,North,0,0.0,5.4,76,0.00,,---,0.00,VWS V14.01,2013-04-08 08:13:00,
2013-04-08 02:16:00,23.7,17.3,29.82,North,353,2.2,2.2,76,0.00,,---,0.00,VWS V14.01,2013-04-08 08:16:00,
2013-04-08 02:17:00,23.7,17.3,29.82,North,0,2.7,3.6,76,0.00,,---,0.00,VWS V14.01,2013-04-08 08:17:00,
2013-04-08 02:19:00,23.7,17.3,29.82,North,353,2.7,4.0,76,0.00,,---,0.00,VWS V14.01,2013-04-08 08:19:00,
2013-04-08 02:22:00,23.7,17.3,29.82,North,353,2.7,4.0,76,0.00,,---,0.00,VWS V14.01,2013-04-08 08:22:00,
2013-04-08 02:24:00,23.7,17.6,29.82,NNW,343,2.7,5.4,77,0.00,,---,0.00,VWS V14.01,2013-04-08 08:24:00,
2013-04-08 02:27:00,23.7,17.6,29.82,NW,325,2.7,5.4,77,0.00,,---,0.00,VWS V14.01,2013-04-08 08:27:00,
2013-04-08 02:28:00,23.7,17.6,29.82,North,350,2.7,5.4,77,0.00,,---,0.00,VWS V14.01,2013-04-08 08:28:00,
2013-04-08 02:29:00,23.7,17.6,29.82,NNW,328,3.1,5.4,77,0.00,,---,0.00,VWS V14.01,2013-04-08 08:29:00,
2013-04-08 02:32:00,23.7,17.6,29.82,NW,326,2.7,3.6,77,0.00,,---,0.00,VWS V14.01,2013-04-08 08:32:00,
2013-04-08 02:34:00,23.5,17.4,29.82,NNW,346,2.7,3.6,77,0.00,,---,0.00,VWS V14.01,2013-04-08 08:34:00,
2013-04-08 02:37:00,23.5,17.4,29.82,NNW,346,2.7,4.5,77,0.00,,---,0.00,VWS V14.01,2013-04-08 08:37:00,
2013-04-08 02:39:00,23.5,17.4,29.82,NW,325,5.4,5.8,77,0.00,,---,0.00,VWS V14.01,2013-04-08 08:39:00,
2013-04-08 02:40:00,23.5,17.4,29.82,NNW,333,2.7,5.8,77,0.00,,---,0.00,VWS V14.01,2013-04-08 08:40:00,
2013-04-08 02:41:00,23.5,17.4,29.82,NW,318,4.9,5.8,77,0.00,,---,0.00,VWS V14.01,2013-04-08 08:41:00,
2013-04-08 02:42:00,23.5,17.1,29.82,North,0,4.0,5.8,76,0.00,,---,0.00,VWS V14.01,2013-04-08 08:42:00,
2013-04-08 02:45:00,23.5,17.1,29.82,NNW,344,0.0,5.8,76,0.00,,---,0.00,VWS V14.01,2013-04-08 08:45:00,
2013-04-08 02:46:00,23.5,17.1,29.82,North,353,0.0,3.1,76,0.00,,---,0.00,VWS V14.01,2013-04-08 08:46:00,
2013-04-08 02:47:00,23.5,17.1,29.82,NW,316,3.6,3.6,76,0.00,,---,0.00,VWS V14.01,2013-04-08 08:47:00,
2013-04-08 02:50:00,23.5,17.1,29.82,NW,324,0.0,3.6,76,0.00,,---,0.00,VWS V14.01,2013-04-08 08:50:00,
2013-04-08 02:51:00,23.5,17.1,29.82,NNW,345,2.7,3.6,76,0.00,,---,0.00,VWS V14.01,2013-04-08 08:51:00,
2013-04-08 02:52:00,23.5,17.1,29.82,NNW,339,2.2,4.0,76,0.00,,---,0.00,VWS V14.01,2013-04-08 08:52:00,
2013-04-08 02:55:00,23.5,17.1,29.82,NNW,333,0.0,4.9,76,0.00,,---,0.00,VWS V14.01,2013-04-08 08:55:00,
2013-04-08 02:56:00,23.5,17.1,29.82,NNW,332,2.2,4.9,76,0.00,,---,0.00,VWS V14.01,2013-04-08 08:56:00,
2013-04-08 02:57:00,23.5,17.1,29.82,NW,314,2.2,4.9,76,0.00,,---,0.00,VWS V14.01,2013-04-08 08:57:00,
2013-04-08 02:58:00,23.5,17.1,29.82,North,357,3.6,4.9,76,0.00,,---,0.00,VWS V14.01,2013-04-08 08:58:00,
2013-04-08 03:00:00,23.4,16.9,29.82,NW,326,2.7,2.7,76,0.00,,---,0.00,VWS V14.01,2013-04-08 09:00:00,
2013-04-08 03:01:00,23.4,16.9,29.82,NW,326,0.0,2.7,76,0.00,,---,0.00,VWS V14.01,2013-04-08 09:01:00,
2013-04-08 03:02:00,23.4,16.9,29.82,NNW,334,3.1,3.1,76,0.00,,---,0.00,VWS V14.01,2013-04-08 09:02:00,
2013-04-08 03:03:00,23.4,16.9,29.82,NNW,336,4.0,4.0,76,0.00,,---,0.00,VWS V14.01,2013-04-08 09:03:00,
2013-04-08 03:06:00,23.4,16.9,29.82,NNW,337,4.0,6.3,76,0.00,,---,0.00,VWS V14.01,2013-04-08 09:06:00,
2013-04-08 03:07:00,23.4,16.9,29.82,NNW,338,2.7,6.3,76,0.00,,---,0.00,VWS V14.01,2013-04-08 09:07:00,
2013-04-08 03:08:00,23.4,16.9,29.82,NNW,343,2.7,6.3,76,0.00,,---,0.00,VWS V14.01,2013-04-08 09:08:00,
2013-04-08 03:12:00,23.4,16.9,29.82,NW,322,2.7,6.3,76,0.00,,---,0.00,VWS V14.01,2013-04-08 09:12:00,
2013-04-08 03:13:00,23.4,16.9,29.82,NW,318,2.2,6.3,76,0.00,,---,0.00,VWS V14.01,2013-04-08 09:13:00,
2013-04-08 03:17:00,23.2,16.8,29.82,NW,321,2.7,4.0,76,0.00,,---,0.00,VWS V14.01,2013-04-08 09:17:00,
2013-04-08 03:18:00,23.2,16.8,29.82,NW,325,3.6,4.0,76,0.00,,---,0.00,VWS V14.01,2013-04-08 09:18:00,
2013-04-08 03:22:00,23.2,16.8,29.82,NNW,340,3.1,4.9,76,0.00,,---,0.00,VWS V14.01,2013-04-08 09:22:00,
2013-04-08 03:23:00,23.2,16.8,29.82,NNW,341,0.0,4.9,76,0.00,,---,0.00,VWS V14.01,2013-04-08 09:23:00,
2013-04-08 03:28:00,23.0,16.6,29.82,NNW,337,2.7,4.9,76,0.00,,---,0.00,VWS V14.01,2013-04-08 09:28:00,
2013-04-08 03:33:00,23.0,16.6,29.82,WNW,282,3.6,4.0,76,0.00,,---,0.00,VWS V14.01,2013-04-08 09:33:00,
2013-04-08 03:34:00,23.0,16.9,29.82,NNW,345,3.6,4.9,77,0.00,,---,0.00,VWS V14.01,2013-04-08 09:34:00,
2013-04-08 03:38:00,22.8,16.4,29.82,North,353,2.7,6.3,76,0.00,,---,0.00,VWS V14.01,2013-04-08 09:38:00,
2013-04-08 03:39:00,22.8,16.4,29.82,North,353,4.9,6.3,76,0.00,,---,0.00,VWS V14.01,2013-04-08 09:39:00,
2013-04-08 03:43:00,22.8,16.4,29.82,North,353,4.0,6.3,76,0.00,,---,0.00,VWS V14.01,2013-04-08 09:43:00,
2013-04-08 03:44:00,22.8,16.4,29.82,North,9,3.6,6.3,76,0.00,,---,0.00,VWS V14.01,2013-04-08 09:44:00,
2013-04-08 03:48:00,22.8,16.4,29.82,North,357,6.3,6.3,76,0.00,,---,0.00,VWS V14.01,2013-04-08 09:48:00,
2013-04-08 03:50:00,22.8,16.4,29.82,North,353,2.7,6.3,76,0.00,,---,0.00,VWS V14.01,2013-04-08 09:50:00,
2013-04-08 03:53:00,22.6,16.2,29.82,NNW,343,4.0,6.3,76,0.00,,---,0.00,VWS V14.01,2013-04-08 09:53:00,
2013-04-08 03:55:00,22.6,16.2,29.82,NNW,346,3.1,6.3,76,0.00,,---,0.00,VWS V14.01,2013-04-08 09:55:00,
2013-04-08 03:58:00,22.6,16.2,29.82,North,350,3.6,6.3,76,0.00,,---,0.00,VWS V14.01,2013-04-08 09:58:00,
2013-04-08 03:59:00,22.6,16.2,29.82,North,350,3.1,6.3,76,0.00,,---,0.00,VWS V14.01,2013-04-08 09:59:00,
2013-04-08 04:00:00,22.6,16.2,29.82,North,353,2.7,2.7,76,0.00,,---,0.00,VWS V14.01,2013-04-08 10:00:00,
2013-04-08 04:03:00,22.5,16.0,29.82,North,353,3.1,5.8,76,0.00,,---,0.00,VWS V14.01,2013-04-08 10:03:00,
2013-04-08 04:04:00,22.5,16.0,29.82,NNW,335,4.0,5.8,76,0.00,,---,0.00,VWS V14.01,2013-04-08 10:04:00,
2013-04-08 04:05:00,22.5,16.0,29.82,NNW,341,3.6,5.8,76,0.00,,---,0.00,VWS V14.01,2013-04-08 10:05:00,
2013-04-08 04:09:00,22.5,16.0,29.82,North,2,5.4,6.3,76,0.00,,---,0.00,VWS V14.01,2013-04-08 10:09:00,
2013-04-08 04:10:00,22.5,16.4,29.82,NNW,337,3.1,6.3,77,0.00,,---,0.00,VWS V14.01,2013-04-08 10:10:00,
2013-04-08 04:11:00,22.5,16.4,29.82,NNW,343,2.7,6.3,77,0.00,,---,0.00,VWS V14.01,2013-04-08 10:11:00,
2013-04-08 04:14:00,22.3,16.2,29.82,North,357,4.0,6.3,77,0.00,,---,0.00,VWS V14.01,2013-04-08 10:14:00,
2013-04-08 04:15:00,22.3,16.2,29.82,North,353,4.0,4.0,77,0.00,,---,0.00,VWS V14.01,2013-04-08 10:15:00,
2013-04-08 04:16:00,22.3,16.2,29.82,North,357,4.0,4.0,77,0.00,,---,0.00,VWS V14.01,2013-04-08 10:16:00,
2013-04-08 04:17:00,22.3,16.2,29.82,North,0,2.7,4.0,77,0.00,,---,0.00,VWS V14.01,2013-04-08 10:17:00,
2013-04-08 04:19:00,22.3,16.2,29.82,North,353,2.7,4.0,77,0.00,,---,0.00,VWS V14.01,2013-04-08 10:19:00,
2013-04-08 04:21:00,22.3,16.2,29.82,NNW,332,3.6,4.0,77,0.00,,---,0.00,VWS V14.01,2013-04-08 10:21:00,
2013-04-08 04:22:00,22.3,16.2,29.82,NNW,344,0.0,4.0,77,0.00,,---,0.00,VWS V14.01,2013-04-08 10:22:00,
2013-04-08 04:25:00,22.3,16.2,29.82,NNW,340,3.6,4.0,77,0.00,,---,0.00,VWS V14.01,2013-04-08 10:25:00,
2013-04-08 04:26:00,22.3,16.2,29.82,North,353,4.0,4.0,77,0.00,,---,0.00,VWS V14.01,2013-04-08 10:26:00,
2013-04-08 04:27:00,22.3,16.2,29.82,North,0,3.1,4.0,77,0.00,,---,0.00,VWS V14.01,2013-04-08 10:27:00,
2013-04-08 04:28:00,22.3,16.2,29.82,North,357,3.6,4.0,77,0.00,,---,0.00,VWS V14.01,2013-04-08 10:28:00,
2013-04-08 04:30:00,22.3,16.2,29.82,NNW,334,0.0,3.6,77,0.00,,---,0.00,VWS V14.01,2013-04-08 10:30:00,
2013-04-08 04:32:00,22.3,16.2,29.82,North,357,5.8,5.8,77,0.00,,---,0.00,VWS V14.01,2013-04-08 10:32:00,
2013-04-08 04:33:00,22.3,16.5,29.82,North,349,0.0,5.8,78,0.00,,---,0.00,VWS V14.01,2013-04-08 10:33:00,
2013-04-08 04:35:00,22.3,16.5,29.82,North,350,3.1,5.8,78,0.00,,---,0.00,VWS V14.01,2013-04-08 10:35:00,
2013-04-08 04:37:00,22.3,16.5,29.82,NNW,340,3.1,5.8,78,0.00,,---,0.00,VWS V14.01,2013-04-08 10:37:00,
2013-04-08 04:38:00,22.3,16.5,29.82,NNW,344,0.0,5.8,78,0.00,,---,0.00,VWS V14.01,2013-04-08 10:38:00,
2013-04-08 04:40:00,22.3,16.5,29.82,NW,320,0.0,5.8,78,0.00,,---,0.00,VWS V14.01,2013-04-08 10:40:00,
2013-04-08 04:42:00,22.3,16.5,29.82,NNW,338,0.0,5.8,78,0.00,,---,0.00,VWS V14.01,2013-04-08 10:42:00,
2013-04-08 04:43:00,22.3,16.5,29.82,NNW,333,2.2,5.8,78,0.00,,---,0.00,VWS V14.01,2013-04-08 10:43:00,
2013-04-08 04:45:00,22.3,16.5,29.82,NNW,332,0.0,2.7,78,0.00,,---,0.00,VWS V14.01,2013-04-08 10:45:00,
2013-04-08 04:47:00,22.3,16.5,29.82,NW,324,3.6,3.6,78,0.00,,---,0.00,VWS V14.01,2013-04-08 10:47:00,
2013-04-08 04:48:00,22.3,16.5,29.82,North,0,3.6,5.8,78,0.00,,---,0.00,VWS V14.01,2013-04-08 10:48:00,
2013-04-08 04:52:00,22.3,16.5,29.82,NNW,348,2.7,5.8,78,0.00,,---,0.00,VWS V14.01,2013-04-08 10:52:00,
2013-04-08 04:53:00,22.3,16.5,29.82,North,0,2.2,5.8,78,0.00,,---,0.00,VWS V14.01,2013-04-08 10:53:00,
2013-04-08 04:57:00,22.1,16.3,29.82,NNW,329,3.1,5.8,78,0.00,,---,0.00,VWS V14.01,2013-04-08 10:57:00,
2013-04-08 04:58:00,22.1,16.3,29.82,NW,323,3.1,5.8,78,0.00,,---,0.00,VWS V14.01,2013-04-08 10:58:00,
2013-04-08 04:59:00,22.1,16.3,29.82,North,0,3.6,5.8,78,0.00,,---,0.00,VWS V14.01,2013-04-08 10:59:00,
2013-04-08 05:03:00,22.1,16.3,29.82,NW,326,2.7,3.1,78,0.00,,---,0.00,VWS V14.01,2013-04-08 11:03:00,
2013-04-08 05:04:00,22.1,16.3,29.82,North,357,4.0,4.0,78,0.00,,---,0.00,VWS V14.01,2013-04-08 11:04:00,
2013-04-08 05:08:00,22.1,16.3,29.82,NNW,340,4.0,5.8,78,0.00,,---,0.00,VWS V14.01,2013-04-08 11:08:00,
2013-04-08 05:09:00,22.1,16.3,29.82,NNW,332,3.1,5.8,78,0.00,,---,0.00,VWS V14.01,2013-04-08 11:09:00,
2013-04-08 05:13:00,22.1,16.3,29.82,North,0,3.1,5.8,78,0.00,,---,0.00,VWS V14.01,2013-04-08 11:13:00,
2013-04-08 05:14:00,22.1,16.3,29.82,North,1,4.0,5.8,78,0.00,,---,0.00,VWS V14.01,2013-04-08 11:14:00,
2013-04-08 05:15:00,22.1,16.3,29.82,North,0,3.1,5.8,78,0.00,,---,0.00,VWS V14.01,2013-04-08 11:15:00,
2013-04-08 05:18:00,21.9,16.1,29.82,North,4,4.0,6.3,78,0.00,,---,0.00,VWS V14.01,2013-04-08 11:18:00,
2013-04-08 05:19:00,21.9,16.1,29.82,NNW,340,3.6,6.3,78,0.00,,---,0.00,VWS V14.01,2013-04-08 11:19:00,
2013-04-08 05:20:00,21.9,16.1,29.82,NNW,339,2.7,6.3,78,0.00,,---,0.00,VWS V14.01,2013-04-08 11:20:00,
2013-04-08 05:23:00,21.9,16.1,29.82,NNW,343,2.2,6.3,78,0.00,,---,0.00,VWS V14.01,2013-04-08 11:23:00,
2013-04-08 05:25:00,21.9,16.1,29.82,North,353,2.2,6.3,78,0.00,,---,0.00,VWS V14.01,2013-04-08 11:25:00,
2013-04-08 05:27:00,21.9,16.1,29.82,North,353,3.6,6.3,78,0.00,,---,0.00,VWS V14.01,2013-04-08 11:27:00,
2013-04-08 05:28:00,21.9,16.1,29.82,North,353,3.6,6.3,78,0.00,,---,0.00,VWS V14.01,2013-04-08 11:28:00,
2013-04-08 05:30:00,21.9,16.1,29.82,NNW,343,2.7,3.1,78,0.00,,---,0.00,VWS V14.01,2013-04-08 11:30:00,
2013-04-08 05:32:00,21.9,16.1,29.82,NNW,343,3.1,3.1,78,0.00,,---,0.00,VWS V14.01,2013-04-08 11:32:00,
2013-04-08 05:33:00,21.9,16.1,29.82,North,353,3.6,5.4,78,0.00,,---,0.00,VWS V14.01,2013-04-08 11:33:00,
2013-04-08 05:36:00,21.9,16.1,29.82,NNW,345,3.1,5.4,78,0.00,,---,0.00,VWS V14.01,2013-04-08 11:36:00,
2013-04-08 05:37:00,21.9,16.1,29.82,NNW,339,2.7,5.4,78,0.00,,---,0.00,VWS V14.01,2013-04-08 11:37:00,
2013-04-08 05:39:00,21.9,16.1,29.82,North,353,5.4,6.3,78,0.00,,---,0.00,VWS V14.01,2013-04-08 11:39:00,
2013-04-08 05:41:00,21.9,15.8,29.82,North,349,2.7,6.3,77,0.00,,---,0.00,VWS V14.01,2013-04-08 11:41:00,
2013-04-08 05:42:00,21.9,15.8,29.82,North,7,5.4,6.3,77,0.00,,---,0.00,VWS V14.01,2013-04-08 11:42:00,
2013-04-08 05:44:00,21.9,15.8,29.82,NNW,339,2.7,6.3,77,0.00,,---,0.00,VWS V14.01,2013-04-08 11:44:00,
2013-04-08 05:46:00,21.9,15.8,29.82,North,353,3.1,3.1,77,0.00,,---,0.00,VWS V14.01,2013-04-08 11:46:00,
2013-04-08 05:47:00,21.9,15.8,29.82,North,353,4.0,5.4,77,0.00,,---,0.00,VWS V14.01,2013-04-08 11:47:00,
2013-04-08 05:50:00,21.7,15.6,29.82,NNW,343,3.1,5.4,77,0.00,,---,0.00,VWS V14.01,2013-04-08 11:50:00,
2013-04-08 05:51:00,21.7,15.6,29.82,North,4,4.0,5.4,77,0.00,,---,0.00,VWS V14.01,2013-04-08 11:51:00,
2013-04-08 05:52:00,21.7,15.6,29.82,North,0,6.3,6.3,77,0.00,,---,0.00,VWS V14.01,2013-04-08 11:52:00,
2013-04-08 05:55:00,21.7,15.6,29.82,North,0,5.8,6.3,77,0.00,,---,0.00,VWS V14.01,2013-04-08 11:55:00,
2013-04-08 05:57:00,21.6,15.2,29.82,NNW,329,2.7,6.3,76,0.00,,---,0.00,VWS V14.01,2013-04-08 11:57:00,
2013-04-08 05:58:00,21.6,15.2,29.82,North,353,3.6,6.3,76,0.00,,---,0.00,VWS V14.01,2013-04-08 11:58:00,
2013-04-08 06:01:00,21.6,15.2,29.82,North,6,3.6,5.8,76,0.00,,---,0.00,VWS V14.01,2013-04-08 12:01:00,
2013-04-08 06:02:00,21.6,15.2,29.82,North,0,3.6,5.8,76,0.00,,---,0.00,VWS V14.01,2013-04-08 12:02:00,
2013-04-08 06:03:00,21.4,15.0,29.82,North,0,3.6,5.8,76,0.00,,---,0.00,VWS V14.01,2013-04-08 12:03:00,
2013-04-08 06:06:00,21.4,15.0,29.82,North,0,4.0,6.3,76,0.00,,---,0.00,VWS V14.01,2013-04-08 12:06:00,
2013-04-08 06:07:00,21.4,15.0,29.82,North,353,2.7,6.3,76,0.00,,---,0.00,VWS V14.01,2013-04-08 12:07:00,
2013-04-08 06:08:00,21.4,15.0,29.82,North,353,2.7,6.3,76,0.00,,---,0.00,VWS V14.01,2013-04-08 12:08:00,
2013-04-08 06:11:00,21.4,15.0,29.82,NW,324,3.1,6.3,76,0.00,,---,0.00,VWS V14.01,2013-04-08 12:11:00,
2013-04-08 06:13:00,21.4,15.0,29.82,North,353,4.0,6.3,76,0.00,,---,0.00,VWS V14.01,2013-04-08 12:13:00,
2013-04-08 06:14:00,21.4,15.0,29.82,NNW,341,3.6,6.3,76,0.00,,---,0.00,VWS V14.01,2013-04-08 12:14:00,
2013-04-08 06:16:00,21.4,15.0,29.82,NNW,339,3.6,5.4,76,0.00,,---,0.00,VWS V14.01,2013-04-08 12:16:00,
2013-04-08 06:18:00,21.4,15.0,29.82,North,357,4.0,5.4,76,0.00,,---,0.00,VWS V14.01,2013-04-08 12:18:00,
2013-04-08 06:19:00,21.2,14.8,29.82,North,353,3.6,5.4,76,0.00,,---,0.00,VWS V14.01,2013-04-08 12:19:00,
2013-04-08 06:22:00,21.2,14.8,29.82,North,8,5.4,5.4,76,0.00,,---,0.00,VWS V14.01,2013-04-08 12:22:00,
2013-04-08 06:23:00,21.2,14.8,29.82,North,357,5.8,6.3,76,0.00,,---,0.00,VWS V14.01,2013-04-08 12:23:00,
2013-04-08 06:24:00,21.2,14.8,29.82,North,350,4.0,6.3,76,0.00,,---,0.00,VWS V14.01,2013-04-08 12:24:00,
2013-04-08 06:27:00,21.2,14.8,29.82,NNW,332,5.8,6.3,76,0.00,,---,0.00,VWS V14.01,2013-04-08 12:27:00,
2013-04-08 06:28:00,21.2,14.8,29.82,North,353,3.1,6.3,76,0.00,,---,0.00,VWS V14.01,2013-04-08 12:28:00,
2013-04-08 06:29:00,21.2,14.8,29.82,NNW,339,3.6,6.3,76,0.00,,---,0.00,VWS V14.01,2013-04-08 12:29:00,
2013-04-08 06:30:00,21.2,14.8,29.82,NNW,336,2.7,6.3,76,0.00,,---,0.00,VWS V14.01,2013-04-08 12:30:00,
2013-04-08 06:32:00,21.2,14.8,29.82,NNW,344,4.0,6.3,76,0.00,,---,0.00,VWS V14.01,2013-04-08 12:32:00,
2013-04-08 06:34:00,21.2,14.8,29.82,NNW,334,4.0,6.3,76,0.00,,---,0.00,VWS V14.01,2013-04-08 12:34:00,
2013-04-08 06:35:00,21.2,14.5,29.82,NNW,339,3.1,6.3,75,0.00,,---,0.00,VWS V14.01,2013-04-08 12:35:00,
2013-04-08 06:37:00,21.0,14.4,29.82,North,350,3.6,6.3,75,0.00,,---,0.00,VWS V14.01,2013-04-08 12:37:00,
2013-04-08 06:39:00,21.0,14.4,29.82,NNW,337,3.1,6.3,75,0.00,,---,0.00,VWS V14.01,2013-04-08 12:39:00,
2013-04-08 06:40:00,21.0,14.4,29.82,North,357,6.3,6.7,75,0.00,,---,0.00,VWS V14.01,2013-04-08 12:40:00,
2013-04-08 06:43:00,21.0,14.4,29.82,North,353,5.8,6.7,75,0.00,,---,0.00,VWS V14.01,2013-04-08 12:43:00,
2013-04-08 06:44:00,20.8,14.2,29.82,North,357,5.4,6.7,75,0.00,,---,0.00,VWS V14.01,2013-04-08 12:44:00,
2013-04-08 06:45:00,20.8,13.9,29.85,North,0,3.6,4.0,74,0.00,,---,0.00,VWS V14.01,2013-04-08 12:45:00,
2013-04-08 06:47:00,20.8,13.9,29.85,North,353,5.4,5.4,74,0.00,,---,0.00,VWS V14.01,2013-04-08 12:47:00,
2013-04-08 06:48:00,20.8,13.9,29.85,NNW,334,3.6,5.4,74,0.00,,---,0.00,VWS V14.01,2013-04-08 12:48:00,
2013-04-08 06:49:00,20.8,13.9,29.85,NNW,329,3.6,5.8,74,0.00,,---,0.00,VWS V14.01,2013-04-08 12:49:00,
2013-04-08 06:51:00,20.8,13.9,29.85,NNW,341,4.0,5.8,74,0.00,,---,0.00,VWS V14.01,2013-04-08 12:51:00,
2013-04-08 06:52:00,20.8,13.9,29.85,NNW,346,3.6,5.8,74,0.00,,---,0.00,VWS V14.01,2013-04-08 12:52:00,
2013-04-08 06:53:00,20.8,13.9,29.85,NNW,343,4.0,6.3,74,0.00,,---,0.00,VWS V14.01,2013-04-08 12:53:00,
2013-04-08 06:54:00,20.7,13.7,29.85,NW,325,2.7,6.3,74,0.00,,---,0.00,VWS V14.01,2013-04-08 12:54:00,
2013-04-08 06:56:00,20.7,13.7,29.85,NNW,338,4.9,6.3,74,0.00,,---,0.00,VWS V14.01,2013-04-08 12:56:00,
2013-04-08 06:57:00,20.7,13.7,29.85,North,357,3.6,6.3,74,0.00,,---,0.00,VWS V14.01,2013-04-08 12:57:00,
2013-04-08 06:58:00,20.7,13.7,29.85,North,353,4.9,6.3,74,0.00,,---,0.00,VWS V14.01,2013-04-08 12:58:00,
2013-04-08 07:00:00,20.7,13.7,29.85,North,349,5.8,6.3,74,0.00,,---,0.00,VWS V14.01,2013-04-08 13:00:00,
2013-04-08 07:02:00,20.7,13.7,29.85,NNW,346,2.2,5.8,74,0.00,,---,0.00,VWS V14.01,2013-04-08 13:02:00,
2013-04-08 07:03:00,20.7,13.7,29.85,NNW,343,2.7,5.8,74,0.00,,---,0.00,VWS V14.01,2013-04-08 13:03:00,
2013-04-08 07:05:00,20.7,13.7,29.85,North,353,2.7,5.8,74,0.00,,---,0.00,VWS V14.01,2013-04-08 13:05:00,
2013-04-08 07:07:00,20.5,13.5,29.85,NNW,335,2.2,5.8,74,0.00,,---,0.00,VWS V14.01,2013-04-08 13:07:00,
2013-04-08 07:08:00,20.7,13.7,29.85,NNW,331,2.7,5.8,74,0.00,,---,0.00,VWS V14.01,2013-04-08 13:08:00,
2013-04-08 07:10:00,20.7,13.7,29.85,NNW,328,3.1,5.8,74,0.00,,---,0.00,VWS V14.01,2013-04-08 13:10:00,
2013-04-08 07:12:00,20.7,13.7,29.85,NNW,346,3.6,5.8,74,0.00,,---,0.00,VWS V14.01,2013-04-08 13:12:00,
2013-04-08 07:13:00,20.7,13.7,29.85,North,0,4.0,5.8,74,0.00,,---,0.00,VWS V14.01,2013-04-08 13:13:00,
2013-04-08 07:15:00,20.7,13.7,29.85,NNW,345,3.6,3.6,74,0.00,,---,0.00,VWS V14.01,2013-04-08 13:15:00,
2013-04-08 07:18:00,20.7,13.7,29.85,North,350,5.4,5.4,74,0.00,,---,0.00,VWS V14.01,2013-04-08 13:18:00,
2013-04-08 07:21:00,20.7,13.7,29.85,NNW,329,3.6,5.4,74,0.00,,---,0.00,VWS V14.01,2013-04-08 13:21:00,
2013-04-08 07:23:00,20.7,13.7,29.85,North,350,3.1,5.4,74,0.00,,---,0.00,VWS V14.01,2013-04-08 13:23:00,
2013-04-08 07:26:00,20.7,13.4,29.85,North,353,3.1,6.3,73,0.00,,---,0.00,VWS V14.01,2013-04-08 13:26:00,
2013-04-08 07:28:00,20.7,13.4,29.85,North,357,4.9,6.3,73,0.00,,---,0.00,VWS V14.01,2013-04-08 13:28:00,
2013-04-08 07:31:00,20.7,13.4,29.85,NNW,337,2.7,4.9,73,0.00,,---,0.00,VWS V14.01,2013-04-08 13:31:00,
2013-04-08 07:33:00,20.7,13.4,29.85,North,357,4.9,5.8,73,0.00,,---,0.00,VWS V14.01,2013-04-08 13:33:00,
2013-04-08 07:34:00,20.7,13.4,29.85,North,353,4.0,5.8,73,0.00,,---,0.00,VWS V14.01,2013-04-08 13:34:00,
2013-04-08 07:36:00,20.7,13.1,29.85,North,350,3.6,5.8,72,0.00,,---,0.00,VWS V14.01,2013-04-08 13:36:00,
2013-04-08 07:38:00,20.7,13.1,29.85,North,353,2.7,5.8,72,0.00,,---,0.00,VWS V14.01,2013-04-08 13:38:00,
2013-04-08 07:39:00,20.7,13.1,29.85,North,353,3.1,5.8,72,0.00,,---,0.00,VWS V14.01,2013-04-08 13:39:00,
2013-04-08 07:40:00,20.7,13.1,29.85,NNW,346,2.2,5.8,72,0.00,,---,0.00,VWS V14.01,2013-04-08 13:40:00,
2013-04-08 07:42:00,20.7,13.1,29.85,North,0,4.9,5.8,72,0.00,,---,0.00,VWS V14.01,2013-04-08 13:42:00,
2013-04-08 07:43:00,20.7,13.1,29.85,NNW,333,3.1,5.8,72,0.00,,---,0.00,VWS V14.01,2013-04-08 13:43:00,
2013-04-08 07:45:00,20.7,13.1,29.85,NNW,342,5.8,5.8,72,0.00,,---,0.00,VWS V14.01,2013-04-08 13:45:00,
2013-04-08 07:47:00,20.7,12.8,29.85,NNW,348,3.6,6.3,71,0.00,,---,0.00,VWS V14.01,2013-04-08 13:47:00,
2013-04-08 07:49:00,20.7,12.4,29.85,North,353,3.6,6.3,70,0.00,,---,0.00,VWS V14.01,2013-04-08 13:49:00,
2013-04-08 07:50:00,20.7,12.4,29.85,NNW,345,4.9,6.3,70,0.00,,---,0.00,VWS V14.01,2013-04-08 13:50:00,
2013-04-08 07:52:00,20.5,12.3,29.85,North,353,4.9,6.3,70,0.00,,---,0.00,VWS V14.01,2013-04-08 13:52:00,
2013-04-08 07:54:00,20.5,12.3,29.85,North,7,3.6,6.3,70,0.00,,---,0.00,VWS V14.01,2013-04-08 13:54:00,
2013-04-08 07:55:00,20.5,12.3,29.85,NNW,346,5.4,6.3,70,0.00,,---,0.00,VWS V14.01,2013-04-08 13:55:00,
2013-04-08 07:57:00,20.5,11.9,29.85,North,357,3.6,6.3,69,0.00,,---,0.00,VWS V14.01,2013-04-08 13:57:00,
2013-04-08 07:59:00,20.5,11.9,29.85,North,357,3.6,6.3,69,0.00,,---,0.00,VWS V14.01,2013-04-08 13:59:00,
2013-04-08 08:00:00,20.5,11.6,29.88,North,353,4.0,5.8,68,0.00,,---,0.00,VWS V14.01,2013-04-08 14:00:00,
2013-04-08 08:03:00,20.5,11.6,29.88,NNW,345,3.6,5.8,68,0.00,,---,0.00,VWS V14.01,2013-04-08 14:03:00,
2013-04-08 08:04:00,20.5,11.3,29.88,North,349,4.0,7.2,67,0.00,,---,0.00,VWS V14.01,2013-04-08 14:04:00,
2013-04-08 08:05:00,20.3,11.1,29.88,North,0,4.0,7.2,67,0.00,,---,0.00,VWS V14.01,2013-04-08 14:05:00,
2013-04-08 08:06:00,20.3,10.8,29.88,NNW,346,3.6,7.2,66,0.00,,---,0.00,VWS V14.01,2013-04-08 14:06:00,
2013-04-08 08:08:00,20.3,10.8,29.88,North,357,3.6,7.2,66,0.00,,---,0.00,VWS V14.01,2013-04-08 14:08:00,
2013-04-08 08:09:00,20.3,10.8,29.88,NE,39,5.8,7.2,66,0.00,,---,0.00,VWS V14.01,2013-04-08 14:09:00,
2013-04-08 08:10:00,20.3,10.8,29.88,North,353,5.4,7.2,66,0.00,,---,0.00,VWS V14.01,2013-04-08 14:10:00,
2013-04-08 08:12:00,20.3,10.4,29.88,North,357,6.3,7.6,65,0.00,,---,0.00,VWS V14.01,2013-04-08 14:12:00,
2013-04-08 08:13:00,20.3,10.1,29.88,North,357,4.0,7.6,64,0.00,,---,0.00,VWS V14.01,2013-04-08 14:13:00,
2013-04-08 08:15:00,20.3,10.1,29.88,North,357,4.9,7.6,64,0.00,,---,0.00,VWS V14.01,2013-04-08 14:15:00,
2013-04-08 08:16:00,20.3,10.1,29.88,NNW,335,3.6,5.8,64,0.00,,---,0.00,VWS V14.01,2013-04-08 14:16:00,
2013-04-08 08:17:00,20.3,10.1,29.88,NNW,335,3.6,5.8,64,0.00,,---,0.00,VWS V14.01,2013-04-08 14:17:00,
2013-04-08 08:18:00,20.3,10.1,29.88,NNW,348,3.6,5.8,64,0.00,,---,0.00,VWS V14.01,2013-04-08 14:18:00,
2013-04-08 08:20:00,20.3,10.1,29.88,North,1,4.0,5.8,64,0.00,,---,0.00,VWS V14.01,2013-04-08 14:20:00,
2013-04-08 08:21:00,20.3,10.1,29.88,North,357,3.6,5.8,64,0.00,,---,0.00,VWS V14.01,2013-04-08 14:21:00,
2013-04-08 08:22:00,20.3,10.1,29.88,NNW,337,3.1,5.8,64,0.00,,---,0.00,VWS V14.01,2013-04-08 14:22:00,
2013-04-08 08:23:00,20.3,10.1,29.88,NNW,330,3.1,5.8,64,0.00,,---,0.00,VWS V14.01,2013-04-08 14:23:00,
2013-04-08 08:25:00,20.3,10.1,29.88,NNW,332,8.1,8.1,64,0.00,,---,0.00,VWS V14.01,2013-04-08 14:25:00,
2013-04-08 08:26:00,20.1,9.6,29.88,North,0,4.0,8.1,63,0.00,,---,0.00,VWS V14.01,2013-04-08 14:26:00,
2013-04-08 08:27:00,20.1,9.2,29.88,North,353,5.8,8.1,62,0.00,,---,0.00,VWS V14.01,2013-04-08 14:27:00,
2013-04-08 08:29:00,20.1,9.2,29.88,NNE,14,4.0,8.1,62,0.00,,---,0.00,VWS V14.01,2013-04-08 14:29:00,
2013-04-08 08:30:00,19.9,9.0,29.91,North,357,3.1,4.0,62,0.00,,---,0.00,VWS V14.01,2013-04-08 14:30:00,
2013-04-08 08:31:00,19.9,9.0,29.91,NNW,333,5.4,5.8,62,0.00,,---,0.00,VWS V14.01,2013-04-08 14:31:00,
2013-04-08 08:33:00,19.9,9.0,29.91,North,0,3.1,5.8,62,0.00,,---,0.00,VWS V14.01,2013-04-08 14:33:00,
2013-04-08 08:34:00,19.9,8.7,29.91,North,357,5.8,5.8,61,0.00,,---,0.00,VWS V14.01,2013-04-08 14:34:00,
2013-04-08 08:35:00,19.8,8.5,29.91,North,357,4.9,5.8,61,0.00,,---,0.00,VWS V14.01,2013-04-08 14:35:00,
2013-04-08 08:37:00,19.8,8.5,29.91,NNE,16,4.0,7.2,61,0.00,,---,0.00,VWS V14.01,2013-04-08 14:37:00,
2013-04-08 08:40:00,19.8,8.5,29.91,North,353,3.1,7.2,61,0.00,,---,0.00,VWS V14.01,2013-04-08 14:40:00,
2013-04-08 08:41:00,19.8,8.5,29.91,North,353,3.1,7.2,61,0.00,,---,0.00,VWS V14.01,2013-04-08 14:41:00,
2013-04-08 08:43:00,19.9,9.0,29.91,NW,325,3.1,7.2,62,0.00,,---,0.00,VWS V14.01,2013-04-08 14:43:00,
2013-04-08 08:45:00,19.9,9.0,29.91,North,0,3.6,7.2,62,0.00,,---,0.00,VWS V14.01,2013-04-08 14:45:00,
2013-04-08 08:46:00,19.9,9.0,29.91,NNW,348,4.9,5.8,62,0.00,,---,0.00,VWS V14.01,2013-04-08 14:46:00,
2013-04-08 08:48:00,19.9,8.7,29.91,North,357,5.8,5.8,61,0.00,,---,0.00,VWS V14.01,2013-04-08 14:48:00,
2013-04-08 08:50:00,19.9,8.3,29.91,NNW,344,3.1,5.8,60,0.00,,---,0.00,VWS V14.01,2013-04-08 14:50:00,
2013-04-08 08:51:00,19.9,8.3,29.91,NNW,337,2.7,5.8,60,0.00,,---,0.00,VWS V14.01,2013-04-08 14:51:00,
2013-04-08 08:53:00,20.1,8.5,29.91,NNW,335,2.7,5.8,60,0.00,,---,0.00,VWS V14.01,2013-04-08 14:53:00,
2013-04-08 08:55:00,20.3,9.0,29.91,NNW,340,3.6,5.8,61,0.00,,---,0.00,VWS V14.01,2013-04-08 14:55:00,
2013-04-08 08:56:00,20.3,9.0,29.91,NNW,337,3.6,5.8,61,0.00,,---,0.00,VWS V14.01,2013-04-08 14:56:00,
2013-04-08 08:57:00,20.3,9.0,29.91,North,353,3.1,5.8,61,0.00,,---,0.00,VWS V14.01,2013-04-08 14:57:00,
2013-04-08 08:58:00,20.3,8.6,29.91,North,357,5.8,5.8,60,0.00,,---,0.00,VWS V14.01,2013-04-08 14:58:00,
2013-04-08 09:00:00,20.3,8.3,29.91,NNW,342,2.7,4.0,59,0.00,,---,0.00,VWS V14.01,2013-04-08 15:00:00,
2013-04-08 09:01:00,20.5,8.4,29.91,North,350,3.6,4.0,59,0.00,,---,0.00,VWS V14.01,2013-04-08 15:01:00,
2013-04-08 09:02:00,20.5,8.8,29.91,NW,326,3.1,4.0,60,0.00,,---,0.00,VWS V14.01,2013-04-08 15:02:00,
2013-04-08 09:03:00,20.5,8.4,29.91,NW,308,4.0,5.8,59,0.00,,---,0.00,VWS V14.01,2013-04-08 15:03:00,
2013-04-08 09:05:00,20.7,8.6,29.91,North,353,4.0,5.8,59,0.00,,---,0.00,VWS V14.01,2013-04-08 15:05:00,
2013-04-08 09:07:00,20.7,8.2,29.91,North,0,4.9,5.8,58,0.00,,---,0.00,VWS V14.01,2013-04-08 15:07:00,
2013-04-08 09:09:00,20.7,7.8,29.91,NW,318,4.0,5.8,57,0.00,,---,0.00,VWS V14.01,2013-04-08 15:09:00,
2013-04-08 09:12:00,20.7,8.2,29.91,NNW,338,5.4,5.8,58,0.00,,---,0.00,VWS V14.01,2013-04-08 15:12:00,
2013-04-08 09:14:00,20.7,7.8,29.91,NNW,327,3.6,6.3,57,0.00,,---,0.00,VWS V14.01,2013-04-08 15:14:00,
2013-04-08 09:17:00,20.5,6.9,29.91,North,353,5.4,8.1,55,0.00,,---,0.00,VWS V14.01,2013-04-08 15:17:00,
2013-04-08 09:20:00,20.5,7.3,29.91,NW,313,2.7,8.1,56,0.00,,---,0.00,VWS V14.01,2013-04-08 15:20:00,
2013-04-08 09:22:00,20.5,7.3,29.91,NNW,333,3.1,8.1,56,0.00,,---,0.00,VWS V14.01,2013-04-08 15:22:00,
2013-04-08 09:23:00,20.5,7.3,29.91,NNW,333,3.1,8.1,56,0.00,,---,0.00,VWS V14.01,2013-04-08 15:23:00,
2013-04-08 09:25:00,20.7,7.8,29.91,NNW,342,4.9,8.1,57,0.00,,---,0.00,VWS V14.01,2013-04-08 15:25:00,
2013-04-08 09:27:00,20.7,7.5,29.91,North,357,2.7,8.1,56,0.00,,---,0.00,VWS V14.01,2013-04-08 15:27:00,
2013-04-08 09:28:00,20.7,7.5,29.91,North,6,4.9,8.1,56,0.00,,---,0.00,VWS V14.01,2013-04-08 15:28:00,
2013-04-08 09:30:00,20.7,7.1,29.91,NNW,346,6.3,8.3,55,0.00,,---,0.00,VWS V14.01,2013-04-08 15:30:00,
2013-04-08 09:33:00,20.7,7.1,29.91,North,353,3.1,8.3,55,0.00,,---,0.00,VWS V14.01,2013-04-08 15:33:00,
2013-04-08 09:37:00,20.7,7.1,29.91,NNW,346,3.6,8.3,55,0.00,,---,0.00,VWS V14.01,2013-04-08 15:37:00,
2013-04-08 09:38:00,20.5,6.9,29.91,North,0,4.0,8.3,55,0.00,,---,0.00,VWS V14.01,2013-04-08 15:38:00,
2013-04-08 09:42:00,20.3,6.3,29.91,North,353,3.1,8.3,54,0.00,,---,0.00,VWS V14.01,2013-04-08 15:42:00,
2013-04-08 09:43:00,20.3,6.3,29.91,NNW,338,3.1,8.3,54,0.00,,---,0.00,VWS V14.01,2013-04-08 15:43:00,
2013-04-08 09:44:00,20.3,6.7,29.91,North,5,5.8,8.3,55,0.00,,---,0.00,VWS V14.01,2013-04-08 15:44:00,
2013-04-08 09:47:00,20.3,6.7,29.91,NNW,344,2.7,7.6,55,0.00,,---,0.00,VWS V14.01,2013-04-08 15:47:00,
2013-04-08 09:48:00,20.3,6.7,29.91,North,357,5.4,7.6,55,0.00,,---,0.00,VWS V14.01,2013-04-08 15:48:00,
2013-04-08 09:50:00,20.3,6.7,29.91,North,0,2.7,7.6,55,0.00,,---,0.00,VWS V14.01,2013-04-08 15:50:00,
2013-04-08 09:52:00,20.5,7.3,29.91,NNW,335,4.0,7.6,56,0.00,,---,0.00,VWS V14.01,2013-04-08 15:52:00,
2013-04-08 09:53:00,20.5,7.3,29.91,North,353,5.8,7.6,56,0.00,,---,0.00,VWS V14.01,2013-04-08 15:53:00,
2013-04-08 09:55:00,20.7,7.1,29.91,North,353,6.3,7.6,55,0.00,,---,0.00,VWS V14.01,2013-04-08 15:55:00,
2013-04-08 09:57:00,20.5,6.5,29.91,North,0,6.3,7.6,54,0.00,,---,0.00,VWS V14.01,2013-04-08 15:57:00,
2013-04-08 09:59:00,20.5,6.9,29.91,NW,322,6.3,7.6,55,0.00,,---,0.00,VWS V14.01,2013-04-08 15:59:00,
2013-04-08 10:00:00,20.5,6.9,29.94,North,357,6.7,6.7,55,0.00,,---,0.00,VWS V14.01,2013-04-08 16:00:00,
2013-04-08 10:03:00,20.3,5.9,29.94,North,353,3.6,9.6,53,0.00,,---,0.00,VWS V14.01,2013-04-08 16:03:00,
2013-04-08 10:05:00,20.3,5.9,29.94,North,2,5.4,9.6,53,0.00,,---,0.00,VWS V14.01,2013-04-08 16:05:00,
2013-04-08 10:08:00,20.3,5.9,29.94,North,357,4.5,9.6,53,0.00,,---,0.00,VWS V14.01,2013-04-08 16:08:00,
2013-04-08 10:10:00,20.5,6.5,29.94,NNW,340,6.7,9.6,54,0.00,,---,0.00,VWS V14.01,2013-04-08 16:10:00,
2013-04-08 10:13:00,20.7,6.7,29.94,NNW,343,5.8,9.6,54,0.00,,---,0.00,VWS V14.01,2013-04-08 16:13:00,
2013-04-08 10:16:00,20.7,6.7,29.94,NNW,341,5.4,7.6,54,0.00,,---,0.00,VWS V14.01,2013-04-08 16:16:00,
2013-04-08 10:18:00,20.7,6.2,29.94,North,353,4.9,7.6,53,0.00,,---,0.00,VWS V14.01,2013-04-08 16:18:00,
2013-04-08 10:21:00,20.7,6.2,29.94,North,353,3.6,7.6,53,0.00,,---,0.00,VWS V14.01,2013-04-08 16:21:00,
2013-04-08 10:22:00,20.7,6.2,29.94,NNW,342,5.4,7.6,53,0.00,,---,0.00,VWS V14.01,2013-04-08 16:22:00,
2013-04-08 10:23:00,20.7,6.2,29.94,North,357,5.8,7.6,53,0.00,,---,0.00,VWS V14.01,2013-04-08 16:23:00,
2013-04-08 10:27:00,20.8,6.4,29.94,NNW,330,2.7,7.6,53,0.00,,---,0.00,VWS V14.01,2013-04-08 16:27:00,
2013-04-08 10:28:00,21.0,7.0,29.94,North,353,3.1,7.6,54,0.00,,---,0.00,VWS V14.01,2013-04-08 16:28:00,
2013-04-08 10:32:00,21.2,6.8,29.94,NW,314,3.6,5.4,53,0.00,,---,0.00,VWS V14.01,2013-04-08 16:32:00,
2013-04-08 10:33:00,21.2,6.8,29.94,North,0,6.3,6.3,53,0.00,,---,0.00,VWS V14.01,2013-04-08 16:33:00,
2013-04-08 10:37:00,20.8,6.0,29.94,NNW,346,6.7,8.7,52,0.00,,---,0.00,VWS V14.01,2013-04-08 16:37:00,
2013-04-08 10:38:00,20.8,6.0,29.94,North,353,4.9,8.7,52,0.00,,---,0.00,VWS V14.01,2013-04-08 16:38:00,
2013-04-08 10:42:00,21.2,6.8,29.94,NNW,346,4.9,8.7,53,0.00,,---,0.00,VWS V14.01,2013-04-08 16:42:00,
2013-04-08 10:43:00,21.2,6.8,29.94,NNW,346,4.9,8.7,53,0.00,,---,0.00,VWS V14.01,2013-04-08 16:43:00,
2013-04-08 10:48:00,21.2,6.8,29.94,North,6,5.4,6.3,53,0.00,,---,0.00,VWS V14.01,2013-04-08 16:48:00,
2013-04-08 10:49:00,21.2,5.9,29.94,NNW,343,4.0,8.1,51,0.00,,---,0.00,VWS V14.01,2013-04-08 16:49:00,
2013-04-08 10:53:00,21.4,6.1,29.94,NNW,335,8.1,10.1,51,0.00,,---,0.00,VWS V14.01,2013-04-08 16:53:00,
2013-04-08 10:54:00,21.4,6.5,29.94,North,7,8.1,10.1,52,0.00,,---,0.00,VWS V14.01,2013-04-08 16:54:00,
2013-04-08 10:59:00,21.6,5.8,29.94,North,0,5.4,10.1,50,0.00,,---,0.00,VWS V14.01,2013-04-08 16:59:00,
2013-04-08 11:00:00,21.6,6.2,29.94,NNW,330,3.6,10.1,51,0.00,,---,0.00,VWS V14.01,2013-04-08 17:00:00,
2013-04-08 11:04:00,21.7,6.0,29.94,North,357,5.8,6.3,50,0.00,,---,0.00,VWS V14.01,2013-04-08 17:04:00,
2013-04-08 11:05:00,21.7,5.5,29.94,North,0,5.4,8.1,49,0.00,,---,0.00,VWS V14.01,2013-04-08 17:05:00,
2013-04-08 11:09:00,21.6,4.9,29.94,North,353,6.3,8.1,48,0.00,,---,0.00,VWS V14.01,2013-04-08 17:09:00,
2013-04-08 11:10:00,21.4,4.8,29.94,NNW,344,3.6,8.1,48,0.00,,---,0.00,VWS V14.01,2013-04-08 17:10:00,
2013-04-08 11:11:00,21.4,4.8,29.94,NNW,348,3.1,8.1,48,0.00,,---,0.00,VWS V14.01,2013-04-08 17:11:00,
2013-04-08 11:15:00,21.4,5.2,29.94,NNW,341,2.7,8.1,49,0.00,,---,0.00,VWS V14.01,2013-04-08 17:15:00,
2013-04-08 11:16:00,21.6,5.8,29.94,North,357,3.6,3.6,50,0.00,,---,0.00,VWS V14.01,2013-04-08 17:16:00,
2013-04-08 11:20:00,21.4,4.3,29.94,North,0,3.6,8.7,47,0.00,,---,0.00,VWS V14.01,2013-04-08 17:20:00,
2013-04-08 11:21:00,21.6,4.9,29.94,North,6,6.3,8.7,48,0.00,,---,0.00,VWS V14.01,2013-04-08 17:21:00,
2013-04-08 11:22:00,21.6,4.9,29.94,NNW,345,7.2,8.7,48,0.00,,---,0.00,VWS V14.01,2013-04-08 17:22:00,
2013-04-08 11:25:00,21.6,5.4,29.94,NNW,344,4.9,8.7,49,0.00,,---,0.00,VWS V14.01,2013-04-08 17:25:00,
2013-04-08 11:26:00,21.6,5.4,29.94,North,353,5.4,8.7,49,0.00,,---,0.00,VWS V14.01,2013-04-08 17:26:00,
2013-04-08 11:27:00,21.7,5.5,29.94,North,353,4.0,8.7,49,0.00,,---,0.00,VWS V14.01,2013-04-08 17:27:00,
2013-04-08 11:28:00,21.7,5.5,29.94,North,2,5.4,8.7,49,0.00,,---,0.00,VWS V14.01,2013-04-08 17:28:00,
2013-04-08 11:30:00,21.6,4.9,29.97,NNW,346,5.8,5.8,48,0.00,,---,0.00,VWS V14.01,2013-04-08 17:30:00,
2013-04-08 11:31:00,21.6,4.9,29.97,North,4,8.1,8.1,48,0.00,,---,0.00,VWS V14.01,2013-04-08 17:31:00,
2013-04-08 11:32:00,21.6,4.5,29.97,NNW,341,3.1,8.1,47,0.00,,---,0.00,VWS V14.01,2013-04-08 17:32:00,
2013-04-08 11:34:00,21.6,4.9,29.97,North,353,5.8,8.1,48,0.00,,---,0.00,VWS V14.01,2013-04-08 17:34:00,
2013-04-08 11:35:00,21.4,4.8,29.97,North,0,8.1,8.3,48,0.00,,---,0.00,VWS V14.01,2013-04-08 17:35:00,
2013-04-08 11:37:00,21.2,4.6,29.97,North,0,8.1,8.7,48,0.00,,---,0.00,VWS V14.01,2013-04-08 17:37:00,
2013-04-08 11:39:00,21.4,5.2,29.97,North,350,4.0,8.7,49,0.00,,---,0.00,VWS V14.01,2013-04-08 17:39:00,
2013-04-08 11:40:00,21.4,5.2,29.97,NNW,331,3.1,8.7,49,0.00,,---,0.00,VWS V14.01,2013-04-08 17:40:00,
2013-04-08 11:43:00,21.6,6.2,29.97,NW,318,3.6,8.7,51,0.00,,---,0.00,VWS V14.01,2013-04-08 17:43:00,
2013-04-08 11:45:00,21.7,5.5,29.97,North,0,6.3,6.3,49,0.00,,---,0.00,VWS V14.01,2013-04-08 17:45:00,
2013-04-08 11:46:00,21.6,4.9,29.97,North,357,8.7,8.7,48,0.00,,---,0.00,VWS V14.01,2013-04-08 17:46:00,
2013-04-08 11:48:00,21.6,4.5,29.97,NNW,348,7.6,8.7,47,0.00,,---,0.00,VWS V14.01,2013-04-08 17:48:00,
2013-04-08 11:51:00,21.4,4.8,29.97,NNW,341,3.1,10.1,48,0.00,,---,0.00,VWS V14.01,2013-04-08 17:51:00,
2013-04-08 11:53:00,21.4,5.2,29.97,North,9,5.4,10.1,49,0.00,,---,0.00,VWS V14.01,2013-04-08 17:53:00,
2013-04-08 11:57:00,21.6,5.8,29.97,North,353,6.3,10.1,50,0.00,,---,0.00,VWS V14.01,2013-04-08 17:57:00,
2013-04-08 11:58:00,21.6,5.4,29.97,NW,326,4.9,10.1,49,0.00,,---,0.00,VWS V14.01,2013-04-08 17:58:00,
2013-04-08 11:59:00,21.4,4.8,29.97,North,353,6.3,10.1,48,0.00,,---,0.00,VWS V14.01,2013-04-08 17:59:00,
2013-04-08 12:02:00,21.4,5.2,29.97,NW,324,7.6,7.6,49,0.00,,---,0.00,VWS V14.01,2013-04-08 18:02:00,
2013-04-08 12:03:00,21.6,5.4,29.97,NNE,17,6.3,7.6,49,0.00,,---,0.00,VWS V14.01,2013-04-08 18:03:00,
2013-04-08 12:04:00,21.4,5.2,29.97,NNW,346,4.5,8.1,49,0.00,,---,0.00,VWS V14.01,2013-04-08 18:04:00,
2013-04-08 12:07:00,21.6,5.4,29.97,North,357,5.8,8.1,49,0.00,,---,0.00,VWS V14.01,2013-04-08 18:07:00,
2013-04-08 12:09:00,21.6,5.4,29.97,North,349,5.4,8.1,49,0.00,,---,0.00,VWS V14.01,2013-04-08 18:09:00,
2013-04-08 12:12:00,21.7,6.0,29.97,NNW,345,4.9,8.1,50,0.00,,---,0.00,VWS V14.01,2013-04-08 18:12:00,
2013-04-08 12:13:00,21.7,6.4,29.97,North,3,5.8,8.1,51,0.00,,---,0.00,VWS V14.01,2013-04-08 18:13:00,
2013-04-08 12:14:00,21.7,6.0,29.97,NNW,337,4.0,8.1,50,0.00,,---,0.00,VWS V14.01,2013-04-08 18:14:00,
2013-04-08 12:17:00,22.1,6.8,29.97,NW,320,3.1,5.4,51,0.00,,---,0.00,VWS V14.01,2013-04-08 18:17:00,
2013-04-08 12:18:00,22.1,7.2,29.97,NW,311,5.4,5.4,52,0.00,,---,0.00,VWS V14.01,2013-04-08 18:18:00,
2013-04-08 12:19:00,22.1,6.3,29.97,NW,313,5.4,8.7,50,0.00,,---,0.00,VWS V14.01,2013-04-08 18:19:00,
2013-04-08 12:23:00,22.3,6.5,29.97,NNW,340,8.1,8.7,50,0.00,,---,0.00,VWS V14.01,2013-04-08 18:23:00,
2013-04-08 12:24:00,22.3,6.0,29.97,North,353,5.4,8.7,49,0.00,,---,0.00,VWS V14.01,2013-04-08 18:24:00,
2013-04-08 12:28:00,22.1,5.4,29.97,NNW,335,5.4,8.7,48,0.00,,---,0.00,VWS V14.01,2013-04-08 18:28:00,
2013-04-08 12:29:00,22.1,5.9,29.97,North,350,4.0,8.7,49,0.00,,---,0.00,VWS V14.01,2013-04-08 18:29:00,
2013-04-08 12:31:00,22.1,6.3,29.97,NW,322,5.8,5.8,50,0.00,,---,0.00,VWS V14.01,2013-04-08 18:31:00,
2013-04-08 12:33:00,22.1,5.9,29.97,North,0,5.8,7.6,49,0.00,,---,0.00,VWS V14.01,2013-04-08 18:33:00,
2013-04-08 12:34:00,22.1,5.4,29.97,NNW,342,4.0,7.6,48,0.00,,---,0.00,VWS V14.01,2013-04-08 18:34:00,
2013-04-08 12:36:00,22.3,6.0,29.97,NNW,348,7.6,7.6,49,0.00,,---,0.00,VWS V14.01,2013-04-08 18:36:00,
2013-04-08 12:38:00,22.3,5.6,29.97,North,350,3.1,8.3,48,0.00,,---,0.00,VWS V14.01,2013-04-08 18:38:00,
2013-04-08 12:39:00,22.5,5.8,29.97,NNW,331,4.0,8.3,48,0.00,,---,0.00,VWS V14.01,2013-04-08 18:39:00,
2013-04-08 12:40:00,22.5,6.2,29.97,NNW,340,4.0,8.3,49,0.00,,---,0.00,VWS V14.01,2013-04-08 18:40:00,
2013-04-08 12:42:00,22.6,6.8,29.97,NNW,341,5.4,8.3,50,0.00,,---,0.00,VWS V14.01,2013-04-08 18:42:00,
2013-04-08 12:43:00,22.6,5.9,29.97,North,357,4.5,8.3,48,0.00,,---,0.00,VWS V14.01,2013-04-08 18:43:00,
2013-04-08 12:44:00,22.8,6.5,29.97,NNW,340,3.1,8.3,49,0.00,,---,0.00,VWS V14.01,2013-04-08 18:44:00,
2013-04-08 12:45:00,22.8,6.5,29.97,North,0,6.3,6.3,49,0.00,,---,0.00,VWS V14.01,2013-04-08 18:45:00,
2013-04-08 12:47:00,22.8,6.5,29.97,NNW,327,3.1,6.3,49,0.00,,---,0.00,VWS V14.01,2013-04-08 18:47:00,
2013-04-08 12:48:00,23.0,6.7,29.97,NNW,346,4.5,6.3,49,0.00,,---,0.00,VWS V14.01,2013-04-08 18:48:00,
2013-04-08 12:50:00,23.0,6.2,29.97,North,357,5.4,6.3,48,0.00,,---,0.00,VWS V14.01,2013-04-08 18:50:00,
2013-04-08 12:51:00,23.0,6.2,29.97,NNW,348,3.1,6.3,48,0.00,,---,0.00,VWS V14.01,2013-04-08 18:51:00,
2013-04-08 12:52:00,23.0,6.7,29.97,NW,316,3.6,6.3,49,0.00,,---,0.00,VWS V14.01,2013-04-08 18:52:00,
2013-04-08 12:53:00,23.2,6.9,29.97,NNW,346,4.0,6.3,49,0.00,,---,0.00,VWS V14.01,2013-04-08 18:53:00,
2013-04-08 12:55:00,23.4,7.0,29.97,North,8,5.4,6.3,49,0.00,,---,0.00,VWS V14.01,2013-04-08 18:55:00,
2013-04-08 12:56:00,23.4,7.0,29.97,North,353,6.3,6.3,49,0.00,,---,0.00,VWS V14.01,2013-04-08 18:56:00,
2013-04-08 12:57:00,23.4,7.0,29.97,NW,318,5.4,6.3,49,0.00,,---,0.00,VWS V14.01,2013-04-08 18:57:00,
2013-04-08 12:59:00,23.2,5.9,29.97,NNW,343,5.4,8.1,47,0.00,,---,0.00,VWS V14.01,2013-04-08 18:59:00,
2013-04-08 13:00:00,23.0,5.8,29.97,North,0,4.0,5.8,47,0.00,,---,0.00,VWS V14.01,2013-04-08 19:00:00,
2013-04-08 13:02:00,22.8,5.6,29.97,North,349,5.4,7.6,47,0.00,,---,0.00,VWS V14.01,2013-04-08 19:02:00,
2013-04-08 13:04:00,22.8,6.1,29.97,NNW,346,6.3,7.6,48,0.00,,---,0.00,VWS V14.01,2013-04-08 19:04:00,
2013-04-08 13:05:00,22.8,6.1,29.97,NW,325,3.6,7.6,48,0.00,,---,0.00,VWS V14.01,2013-04-08 19:05:00,
2013-04-08 13:07:00,23.0,6.2,29.97,NNW,344,5.4,7.6,48,0.00,,---,0.00,VWS V14.01,2013-04-08 19:07:00,
2013-04-08 13:09:00,23.2,5.9,29.97,NNW,342,3.6,7.6,47,0.00,,---,0.00,VWS V14.01,2013-04-08 19:09:00,
2013-04-08 13:10:00,23.2,5.9,29.97,North,353,4.0,7.6,47,0.00,,---,0.00,VWS V14.01,2013-04-08 19:10:00,
2013-04-08 13:12:00,23.2,5.9,29.97,NNW,328,4.0,7.6,47,0.00,,---,0.00,VWS V14.01,2013-04-08 19:12:00,
2013-04-08 13:13:00,23.2,5.9,29.97,North,349,5.8,7.6,47,0.00,,---,0.00,VWS V14.01,2013-04-08 19:13:00,
2013-04-08 13:15:00,23.2,5.9,29.97,NNW,346,3.1,8.1,47,0.00,,---,0.00,VWS V14.01,2013-04-08 19:15:00,
2013-04-08 13:17:00,23.4,6.6,29.97,NNW,342,3.1,5.8,48,0.00,,---,0.00,VWS V14.01,2013-04-08 19:17:00,
2013-04-08 13:18:00,23.4,6.6,29.97,North,0,4.5,5.8,48,0.00,,---,0.00,VWS V14.01,2013-04-08 19:18:00,
2013-04-08 13:20:00,23.4,6.1,29.97,NW,322,5.8,6.7,47,0.00,,---,0.00,VWS V14.01,2013-04-08 19:20:00,
2013-04-08 13:22:00,23.4,6.1,29.97,North,357,5.8,6.7,47,0.00,,---,0.00,VWS V14.01,2013-04-08 19:22:00,
2013-04-08 13:23:00,23.4,5.7,29.97,North,0,5.4,6.7,46,0.00,,---,0.00,VWS V14.01,2013-04-08 19:23:00,
2013-04-08 13:27:00,23.4,6.1,29.97,North,0,5.4,6.7,47,0.00,,---,0.00,VWS V14.01,2013-04-08 19:27:00,
2013-04-08 13:28:00,23.4,5.7,29.97,NNW,339,5.8,7.6,46,0.00,,---,0.00,VWS V14.01,2013-04-08 19:28:00,
2013-04-08 13:32:00,23.4,5.7,29.97,North,0,4.0,6.3,46,0.00,,---,0.00,VWS V14.01,2013-04-08 19:32:00,
2013-04-08 13:33:00,23.4,5.7,29.97,NNW,346,5.8,6.3,46,0.00,,---,0.00,VWS V14.01,2013-04-08 19:33:00,
2013-04-08 13:37:00,23.5,6.8,29.97,NNW,348,4.0,7.6,48,0.00,,---,0.00,VWS V14.01,2013-04-08 19:37:00,
2013-04-08 13:38:00,23.5,6.8,29.97,North,353,3.6,7.6,48,0.00,,---,0.00,VWS V14.01,2013-04-08 19:38:00,
2013-04-08 13:43:00,23.7,6.0,29.97,North,350,5.4,7.6,46,0.00,,---,0.00,VWS V14.01,2013-04-08 19:43:00,
2013-04-08 13:44:00,23.9,6.1,29.97,North,6,3.1,7.6,46,0.00,,---,0.00,VWS V14.01,2013-04-08 19:44:00,
2013-04-08 13:48:00,24.1,6.3,29.97,North,8,4.0,5.4,46,0.00,,---,0.00,VWS V14.01,2013-04-08 19:48:00,
2013-04-08 13:49:00,24.1,6.3,29.97,North,1,4.9,5.4,46,0.00,,---,0.00,VWS V14.01,2013-04-08 19:49:00,
2013-04-08 13:53:00,24.1,5.8,29.97,NNW,336,4.9,6.3,45,0.00,,---,0.00,VWS V14.01,2013-04-08 19:53:00,
2013-04-08 13:54:00,23.9,5.7,29.97,North,357,5.8,6.3,45,0.00,,---,0.00,VWS V14.01,2013-04-08 19:54:00,
2013-04-08 13:58:00,23.5,4.8,29.97,North,0,4.9,8.3,44,0.00,,---,0.00,VWS V14.01,2013-04-08 19:58:00,
2013-04-08 13:59:00,23.4,5.2,29.97,NNW,335,6.3,8.3,45,0.00,,---,0.00,VWS V14.01,2013-04-08 19:59:00,
2013-04-08 14:03:00,23.5,5.8,29.97,North,357,5.4,5.8,46,0.00,,---,0.00,VWS V14.01,2013-04-08 20:03:00,
2013-04-08 14:04:00,23.5,5.3,29.97,North,349,3.6,5.8,45,0.00,,---,0.00,VWS V14.01,2013-04-08 20:04:00,
2013-04-08 14:05:00,23.5,5.3,29.97,North,0,5.8,6.3,45,0.00,,---,0.00,VWS V14.01,2013-04-08 20:05:00,
2013-04-08 14:08:00,23.5,5.3,29.97,North,11,3.6,6.3,45,0.00,,---,0.00,VWS V14.01,2013-04-08 20:08:00,
2013-04-08 14:09:00,23.5,5.3,29.97,North,357,4.0,6.3,45,0.00,,---,0.00,VWS V14.01,2013-04-08 20:09:00,
2013-04-08 14:10:00,23.5,5.3,29.97,North,353,5.8,6.3,45,0.00,,---,0.00,VWS V14.01,2013-04-08 20:10:00,
2013-04-08 14:13:00,23.5,5.3,29.97,North,5,5.4,7.6,45,0.00,,---,0.00,VWS V14.01,2013-04-08 20:13:00,
2013-04-08 14:14:00,23.5,4.8,29.97,NNW,335,3.6,7.6,44,0.00,,---,0.00,VWS V14.01,2013-04-08 20:14:00,
2013-04-08 14:15:00,23.5,5.3,29.97,North,0,3.6,5.4,45,0.00,,---,0.00,VWS V14.01,2013-04-08 20:15:00,
2013-04-08 14:18:00,23.5,5.3,29.97,North,1,4.0,5.8,45,0.00,,---,0.00,VWS V14.01,2013-04-08 20:18:00,
2013-04-08 14:19:00,23.5,5.3,29.97,NW,325,3.1,6.3,45,0.00,,---,0.00,VWS V14.01,2013-04-08 20:19:00,
2013-04-08 14:20:00,23.5,5.3,29.97,NNW,343,4.0,6.3,45,0.00,,---,0.00,VWS V14.01,2013-04-08 20:20:00,
2013-04-08 14:24:00,23.9,5.7,29.97,NNE,19,5.8,6.3,45,0.00,,---,0.00,VWS V14.01,2013-04-08 20:24:00,
2013-04-08 14:25:00,23.9,5.2,29.97,North,7,7.6,7.6,44,0.00,,---,0.00,VWS V14.01,2013-04-08 20:25:00,
2013-04-08 14:26:00,23.7,5.0,29.97,North,357,5.8,7.6,44,0.00,,---,0.00,VWS V14.01,2013-04-08 20:26:00,
2013-04-08 14:29:00,23.7,5.0,29.97,North,353,3.1,7.6,44,0.00,,---,0.00,VWS V14.01,2013-04-08 20:29:00,
2013-04-08 14:30:00,23.7,5.0,29.97,NNW,341,2.7,3.1,44,0.00,,---,0.00,VWS V14.01,2013-04-08 20:30:00,
2013-04-08 14:31:00,23.7,5.5,29.97,North,3,5.4,5.8,45,0.00,,---,0.00,VWS V14.01,2013-04-08 20:31:00,
2013-04-08 14:34:00,23.9,5.2,29.97,North,353,3.1,5.8,44,0.00,,---,0.00,VWS V14.01,2013-04-08 20:34:00,
2013-04-08 14:36:00,23.9,5.2,29.97,North,349,3.6,5.8,44,0.00,,---,0.00,VWS V14.01,2013-04-08 20:36:00,
2013-04-08 14:37:00,24.1,5.3,29.97,North,3,5.4,5.8,44,0.00,,---,0.00,VWS V14.01,2013-04-08 20:37:00,
2013-04-08 14:39:00,24.1,5.3,29.97,North,357,7.6,7.6,44,0.00,,---,0.00,VWS V14.01,2013-04-08 20:39:00,
2013-04-08 14:41:00,23.7,4.5,29.97,North,0,5.4,8.3,43,0.00,,---,0.00,VWS V14.01,2013-04-08 20:41:00,
2013-04-08 14:42:00,23.7,4.5,29.97,North,357,4.0,8.3,43,0.00,,---,0.00,VWS V14.01,2013-04-08 20:42:00,
2013-04-08 14:44:00,23.5,4.8,29.97,North,2,3.1,8.3,44,0.00,,---,0.00,VWS V14.01,2013-04-08 20:44:00,
2013-04-08 14:47:00,23.7,5.0,29.97,North,0,2.7,4.0,44,0.00,,---,0.00,VWS V14.01,2013-04-08 20:47:00,
2013-04-08 14:49:00,23.9,5.2,29.97,NW,325,3.1,6.3,44,0.00,,---,0.00,VWS V14.01,2013-04-08 20:49:00,
2013-04-08 14:52:00,23.9,4.7,29.97,NNE,20,3.6,6.3,43,0.00,,---,0.00,VWS V14.01,2013-04-08 20:52:00,
2013-04-08 14:55:00,23.9,4.7,29.97,North,350,2.7,6.3,43,0.00,,---,0.00,VWS V14.01,2013-04-08 20:55:00,
2013-04-08 14:57:00,24.1,5.3,29.97,North,6,5.4,6.3,44,0.00,,---,0.00,VWS V14.01,2013-04-08 20:57:00,
2013-04-08 15:00:00,24.1,4.8,29.97,WNW,293,4.0,4.0,43,0.00,,---,0.00,VWS V14.01,2013-04-08 21:00:00,
2013-04-08 15:02:00,24.3,5.5,29.97,NW,322,4.0,4.9,44,0.00,,---,0.00,VWS V14.01,2013-04-08 21:02:00,
2013-04-08 15:03:00,24.3,5.5,29.97,NW,315,4.0,4.9,44,0.00,,---,0.00,VWS V14.01,2013-04-08 21:03:00,
2013-04-08 15:05:00,24.3,5.5,29.97,North,5,3.1,4.9,44,0.00,,---,0.00,VWS V14.01,2013-04-08 21:05:00,
2013-04-08 15:07:00,24.1,4.8,29.97,North,5,3.6,4.9,43,0.00,,---,0.00,VWS V14.01,2013-04-08 21:07:00,
2013-04-08 15:08:00,24.1,4.8,29.97,NNW,343,5.4,5.4,43,0.00,,---,0.00,VWS V14.01,2013-04-08 21:08:00,
2013-04-08 15:10:00,24.1,5.3,29.97,NNW,341,3.1,5.4,44,0.00,,---,0.00,VWS V14.01,2013-04-08 21:10:00,
2013-04-08 15:12:00,24.3,5.5,29.97,NW,313,2.2,5.4,44,0.00,,---,0.00,VWS V14.01,2013-04-08 21:12:00,
2013-04-08 15:13:00,24.3,5.5,29.97,NW,313,2.2,5.4,44,0.00,,---,0.00,VWS V14.01,2013-04-08 21:13:00,
2013-04-08 15:15:00,24.4,5.7,29.97,NNW,331,5.8,5.8,44,0.00,,---,0.00,VWS V14.01,2013-04-08 21:15:00,
2013-04-08 15:17:00,24.4,5.7,29.97,WNW,286,2.2,5.8,44,0.00,,---,0.00,VWS V14.01,2013-04-08 21:17:00,
2013-04-08 15:18:00,24.4,5.7,29.97,WNW,286,2.2,5.8,44,0.00,,---,0.00,VWS V14.01,2013-04-08 21:18:00,
2013-04-08 15:20:00,24.4,5.2,29.97,NNW,345,3.6,5.8,43,0.00,,---,0.00,VWS V14.01,2013-04-08 21:20:00,
2013-04-08 15:22:00,24.4,5.2,29.97,NW,320,3.1,5.8,43,0.00,,---,0.00,VWS V14.01,2013-04-08 21:22:00,
2013-04-08 15:23:00,24.4,5.2,29.97,NW,320,3.1,5.8,43,0.00,,---,0.00,VWS V14.01,2013-04-08 21:23:00,
2013-04-08 15:25:00,24.4,5.7,29.97,NW,311,3.1,5.8,44,0.00,,---,0.00,VWS V14.01,2013-04-08 21:25:00,
2013-04-08 15:28:00,24.6,5.8,29.97,NW,318,2.7,5.8,44,0.00,,---,0.00,VWS V14.01,2013-04-08 21:28:00,
2013-04-08 15:29:00,24.8,6.0,29.97,NW,310,5.4,5.8,44,0.00,,---,0.00,VWS V14.01,2013-04-08 21:29:00,
2013-04-08 15:31:00,24.8,6.0,29.97,WNW,287,3.1,3.6,44,0.00,,---,0.00,VWS V14.01,2013-04-08 21:31:00,
2013-04-08 15:33:00,25.0,5.7,29.97,WNW,299,3.1,3.6,43,0.00,,---,0.00,VWS V14.01,2013-04-08 21:33:00,
2013-04-08 15:34:00,25.0,5.7,29.97,NNW,340,5.8,5.8,43,0.00,,---,0.00,VWS V14.01,2013-04-08 21:34:00,
2013-04-08 15:36:00,25.0,5.7,29.97,NW,321,4.0,6.3,43,0.00,,---,0.00,VWS V14.01,2013-04-08 21:36:00,
2013-04-08 15:38:00,25.0,5.7,29.97,NW,322,3.6,6.3,43,0.00,,---,0.00,VWS V14.01,2013-04-08 21:38:00,
2013-04-08 15:39:00,25.0,5.7,29.97,North,0,4.0,6.3,43,0.00,,---,0.00,VWS V14.01,2013-04-08 21:39:00,
2013-04-08 15:42:00,24.8,5.5,29.97,NW,313,3.6,6.3,43,0.00,,---,0.00,VWS V14.01,2013-04-08 21:42:00,
2013-04-08 15:43:00,25.0,5.7,29.97,WNW,299,2.7,6.3,43,0.00,,---,0.00,VWS V14.01,2013-04-08 21:43:00,
2013-04-08 15:44:00,25.0,5.7,29.97,WNW,302,4.0,6.3,43,0.00,,---,0.00,VWS V14.01,2013-04-08 21:44:00,
2013-04-08 15:47:00,25.0,6.2,29.97,North,6,6.3,6.3,44,0.00,,---,0.00,VWS V14.01,2013-04-08 21:47:00,
2013-04-08 15:49:00,24.8,5.5,29.97,North,0,5.4,6.3,43,0.00,,---,0.00,VWS V14.01,2013-04-08 21:49:00,
2013-04-08 15:50:00,24.6,5.3,29.97,North,0,5.4,6.3,43,0.00,,---,0.00,VWS V14.01,2013-04-08 21:50:00,
2013-04-08 15:52:00,24.1,4.8,29.97,North,0,3.6,6.3,43,0.00,,---,0.00,VWS V14.01,2013-04-08 21:52:00,
2013-04-08 15:54:00,23.9,4.7,29.97,North,353,3.1,6.3,43,0.00,,---,0.00,VWS V14.01,2013-04-08 21:54:00,
2013-04-08 15:55:00,23.9,4.7,29.97,North,0,4.9,6.3,43,0.00,,---,0.00,VWS V14.01,2013-04-08 21:55:00,
2013-04-08 15:56:00,23.9,4.7,29.97,NNW,330,3.1,6.3,43,0.00,,---,0.00,VWS V14.01,2013-04-08 21:56:00,
2013-04-08 15:58:00,23.9,5.2,29.97,NW,308,2.2,6.3,44,0.00,,---,0.00,VWS V14.01,2013-04-08 21:58:00,
2013-04-08 16:00:00,23.9,5.2,29.97,NNW,334,3.1,6.3,44,0.00,,---,0.00,VWS V14.01,2013-04-08 22:00:00,
2013-04-08 16:01:00,24.1,4.8,29.97,North,1,4.0,4.0,43,0.00,,---,0.00,VWS V14.01,2013-04-08 22:01:00,
2013-04-08 16:03:00,24.1,4.8,29.97,North,357,2.2,4.0,43,0.00,,---,0.00,VWS V14.01,2013-04-08 22:03:00,
2013-04-08 16:05:00,24.3,5.0,29.97,North,357,3.1,4.0,43,0.00,,---,0.00,VWS V14.01,2013-04-08 22:05:00,
2013-04-08 16:06:00,24.3,5.5,29.97,NW,314,4.0,4.0,44,0.00,,---,0.00,VWS V14.01,2013-04-08 22:06:00,
2013-04-08 16:09:00,24.3,5.0,29.97,North,357,4.9,6.3,43,0.00,,---,0.00,VWS V14.01,2013-04-08 22:09:00,
2013-04-08 16:10:00,24.3,5.0,29.97,North,3,3.6,6.3,43,0.00,,---,0.00,VWS V14.01,2013-04-08 22:10:00,
2013-04-08 16:11:00,24.1,4.8,29.97,NW,323,3.1,6.3,43,0.00,,---,0.00,VWS V14.01,2013-04-08 22:11:00,
2013-04-08 16:14:00,23.9,4.7,29.97,North,10,4.9,6.3,43,0.00,,---,0.00,VWS V14.01,2013-04-08 22:14:00,
2013-04-08 16:15:00,23.9,4.7,29.97,North,11,2.7,5.4,43,0.00,,---,0.00,VWS V14.01,2013-04-08 22:15:00,
2013-04-08 16:17:00,23.7,4.5,29.97,North,357,5.8,5.8,43,0.00,,---,0.00,VWS V14.01,2013-04-08 22:17:00,
2013-04-08 16:20:00,23.7,4.5,29.97,NNW,345,3.6,6.3,43,0.00,,---,0.00,VWS V14.01,2013-04-08 22:20:00,
2013-04-08 16:22:00,23.9,4.7,29.97,North,357,4.0,6.3,43,0.00,,---,0.00,VWS V14.01,2013-04-08 22:22:00,
2013-04-08 16:25:00,23.9,5.2,29.97,NNE,20,3.6,6.3,44,0.00,,---,0.00,VWS V14.01,2013-04-08 22:25:00,
2013-04-08 16:26:00,23.9,4.7,29.97,North,353,3.6,6.3,43,0.00,,---,0.00,VWS V14.01,2013-04-08 22:26:00,
2013-04-08 16:27:00,23.9,5.2,29.97,NW,322,3.6,6.3,44,0.00,,---,0.00,VWS V14.01,2013-04-08 22:27:00,
2013-04-08 16:30:00,24.4,5.7,30.00,NW,315,3.1,3.6,44,0.00,,---,0.00,VWS V14.01,2013-04-08 22:30:00,
2013-04-08 16:32:00,24.4,5.7,30.00,NNW,328,2.7,3.6,44,0.00,,---,0.00,VWS V14.01,2013-04-08 22:32:00,
2013-04-08 16:35:00,24.3,5.0,30.00,North,357,7.6,7.6,43,0.00,,---,0.00,VWS V14.01,2013-04-08 22:35:00,
2013-04-08 16:37:00,24.1,4.8,30.00,North,0,5.8,7.6,43,0.00,,---,0.00,VWS V14.01,2013-04-08 22:37:00,
2013-04-08 16:41:00,23.7,4.5,30.00,NNW,348,4.9,7.6,43,0.00,,---,0.00,VWS V14.01,2013-04-08 22:41:00,
2013-04-08 16:42:00,23.7,4.5,30.00,NNE,27,5.8,7.6,43,0.00,,---,0.00,VWS V14.01,2013-04-08 22:42:00,
2013-04-08 16:43:00,23.7,4.5,30.00,North,357,4.0,7.6,43,0.00,,---,0.00,VWS V14.01,2013-04-08 22:43:00,
2013-04-08 16:46:00,23.7,5.0,30.00,North,353,5.8,5.8,44,0.00,,---,0.00,VWS V14.01,2013-04-08 22:46:00,
2013-04-08 16:47:00,23.7,5.0,30.00,North,353,3.1,6.3,44,0.00,,---,0.00,VWS V14.01,2013-04-08 22:47:00,
2013-04-08 16:48:00,23.7,5.0,30.00,NNW,346,3.1,6.3,44,0.00,,---,0.00,VWS V14.01,2013-04-08 22:48:00,
2013-04-08 16:51:00,23.7,5.0,30.00,North,2,4.0,6.3,44,0.00,,---,0.00,VWS V14.01,2013-04-08 22:51:00,
2013-04-08 16:53:00,23.5,4.8,30.00,NNW,348,4.9,6.3,44,0.00,,---,0.00,VWS V14.01,2013-04-08 22:53:00,
2013-04-08 16:56:00,23.4,4.7,30.00,North,357,4.0,6.3,44,0.00,,---,0.00,VWS V14.01,2013-04-08 22:56:00,
2013-04-08 16:58:00,23.4,4.7,30.00,NNW,339,4.0,6.3,44,0.00,,---,0.00,VWS V14.01,2013-04-08 22:58:00,
2013-04-08 16:59:00,23.4,4.7,30.00,North,357,4.0,6.3,44,0.00,,---,0.00,VWS V14.01,2013-04-08 22:59:00,
2013-04-08 17:02:00,23.2,4.5,30.00,North,357,4.9,5.8,44,0.00,,---,0.00,VWS V14.01,2013-04-08 23:02:00,
2013-04-08 17:04:00,23.2,4.5,30.00,North,357,5.8,5.8,44,0.00,,---,0.00,VWS V14.01,2013-04-08 23:04:00,
2013-04-08 17:05:00,23.2,4.5,30.00,North,357,5.8,8.1,44,0.00,,---,0.00,VWS V14.01,2013-04-08 23:05:00,
2013-04-08 17:07:00,23.0,4.3,30.00,North,357,5.4,8.1,44,0.00,,---,0.00,VWS V14.01,2013-04-08 23:07:00,
2013-04-08 17:09:00,22.8,4.2,30.00,North,353,4.0,8.1,44,0.00,,---,0.00,VWS V14.01,2013-04-08 23:09:00,
2013-04-08 17:10:00,22.8,4.2,30.00,North,357,4.0,8.1,44,0.00,,---,0.00,VWS V14.01,2013-04-08 23:10:00,
2013-04-08 17:12:00,22.8,4.7,30.00,North,349,3.1,8.1,45,0.00,,---,0.00,VWS V14.01,2013-04-08 23:12:00,
2013-04-08 17:14:00,22.8,5.2,30.00,North,0,3.1,8.1,46,0.00,,---,0.00,VWS V14.01,2013-04-08 23:14:00,
2013-04-08 17:15:00,23.0,5.3,30.00,North,11,5.4,8.1,46,0.00,,---,0.00,VWS V14.01,2013-04-08 23:15:00,
2013-04-08 17:17:00,23.0,4.8,30.03,NNW,341,3.6,5.8,45,0.00,,---,0.00,VWS V14.01,2013-04-08 23:17:00,
2013-04-08 17:20:00,23.0,4.8,30.03,North,353,3.6,5.8,45,0.00,,---,0.00,VWS V14.01,2013-04-08 23:20:00,
2013-04-08 17:22:00,23.0,5.3,30.03,NNW,345,3.1,5.8,46,0.00,,---,0.00,VWS V14.01,2013-04-08 23:22:00,
2013-04-08 17:23:00,23.0,5.3,30.03,NNW,345,2.7,5.8,46,0.00,,---,0.00,VWS V14.01,2013-04-08 23:23:00,
2013-04-08 17:25:00,23.2,5.0,30.03,North,0,4.9,5.8,45,0.00,,---,0.00,VWS V14.01,2013-04-08 23:25:00,
2013-04-08 17:26:00,23.2,5.0,30.03,NW,325,3.6,5.8,45,0.00,,---,0.00,VWS V14.01,2013-04-08 23:26:00,
2013-04-08 17:27:00,23.2,5.0,30.03,NW,321,2.7,5.8,45,0.00,,---,0.00,VWS V14.01,2013-04-08 23:27:00,
2013-04-08 17:28:00,23.2,5.0,30.03,North,357,5.4,5.8,45,0.00,,---,0.00,VWS V14.01,2013-04-08 23:28:00,
2013-04-08 17:30:00,23.2,4.5,30.03,North,357,3.6,3.6,44,0.00,,---,0.00,VWS V14.01,2013-04-08 23:30:00,
2013-04-08 17:31:00,23.2,4.5,30.03,North,357,2.7,3.6,44,0.00,,---,0.00,VWS V14.01,2013-04-08 23:31:00,
2013-04-08 17:32:00,23.2,4.5,30.03,North,353,2.7,4.0,44,0.00,,---,0.00,VWS V14.01,2013-04-08 23:32:00,
2013-04-08 17:35:00,23.2,4.5,30.03,North,3,5.4,5.4,44,0.00,,---,0.00,VWS V14.01,2013-04-08 23:35:00,
2013-04-08 17:36:00,23.2,4.5,30.03,North,2,2.2,5.4,44,0.00,,---,0.00,VWS V14.01,2013-04-08 23:36:00,
2013-04-08 17:37:00,23.2,4.5,30.03,NW,315,3.6,5.4,44,0.00,,---,0.00,VWS V14.01,2013-04-08 23:37:00,
2013-04-08 17:40:00,23.2,4.5,30.03,North,8,8.1,10.1,44,0.00,,---,0.00,VWS V14.01,2013-04-08 23:40:00,
2013-04-08 17:41:00,23.0,4.3,30.03,North,0,4.9,10.1,44,0.00,,---,0.00,VWS V14.01,2013-04-08 23:41:00,
2013-04-08 17:43:00,22.8,4.7,30.03,North,2,2.7,10.1,45,0.00,,---,0.00,VWS V14.01,2013-04-08 23:43:00,
2013-04-08 17:45:00,22.6,4.5,30.03,North,0,3.1,10.1,45,0.00,,---,0.00,VWS V14.01,2013-04-08 23:45:00,
2013-04-08 17:46:00,22.6,4.5,30.03,North,4,4.9,5.8,45,0.00,,---,0.00,VWS V14.01,2013-04-08 23:46:00,
2013-04-08 17:48:00,22.5,4.3,30.03,NW,318,2.7,5.8,45,0.00,,---,0.00,VWS V14.01,2013-04-08 23:48:00,
2013-04-08 17:50:00,22.5,4.3,30.03,North,0,2.7,5.8,45,0.00,,---,0.00,VWS V14.01,2013-04-08 23:50:00,
2013-04-08 17:51:00,22.5,4.3,30.03,North,357,3.6,5.8,45,0.00,,---,0.00,VWS V14.01,2013-04-08 23:51:00,
2013-04-08 17:53:00,22.5,4.3,30.03,North,357,5.8,7.6,45,0.00,,---,0.00,VWS V14.01,2013-04-08 23:53:00,
2013-04-08 17:55:00,22.3,3.7,30.03,North,353,5.4,7.6,44,0.00,,---,0.00,VWS V14.01,2013-04-08 23:55:00,
2013-04-08 17:56:00,22.1,3.5,30.03,North,357,5.4,7.6,44,0.00,,---,0.00,VWS V14.01,2013-04-08 23:56:00,
2013-04-08 17:58:00,22.1,4.0,30.03,NNW,337,3.6,7.6,45,0.00,,---,0.00,VWS V14.01,2013-04-08 23:58:00,
2013-04-08 18:00:00,22.1,4.0,30.06,NNW,343,3.6,4.0,45,0.00,,---,0.00,VWS V14.01,2013-04-09 00:00:00,
2013-04-08 18:01:00,22.1,4.0,30.06,NNW,345,2.7,4.0,45,0.00,,---,0.00,VWS V14.01,2013-04-09 00:01:00,
2013-04-08 18:02:00,22.1,4.0,30.06,North,0,2.7,4.0,45,0.00,,---,0.00,VWS V14.01,2013-04-09 00:02:00,
2013-04-08 18:04:00,22.3,4.2,30.06,North,3,3.6,4.0,45,0.00,,---,0.00,VWS V14.01,2013-04-09 00:04:00,
2013-04-08 18:05:00,22.3,4.2,30.06,North,0,3.6,6.3,45,0.00,,---,0.00,VWS V14.01,2013-04-09 00:05:00,
2013-04-08 18:07:00,22.1,4.0,30.06,NNW,342,3.1,6.3,45,0.00,,---,0.00,VWS V14.01,2013-04-09 00:07:00,
2013-04-08 18:09:00,22.1,4.0,30.06,North,9,4.0,6.3,45,0.00,,---,0.00,VWS V14.01,2013-04-09 00:09:00,
2013-04-08 18:12:00,21.9,3.8,30.06,North,357,3.1,6.3,45,0.00,,---,0.00,VWS V14.01,2013-04-09 00:12:00,
2013-04-08 18:14:00,21.9,4.3,30.06,North,0,3.1,6.3,46,0.00,,---,0.00,VWS V14.01,2013-04-09 00:14:00,
2013-04-08 18:15:00,22.1,4.5,30.06,North,5,4.0,6.3,46,0.00,,---,0.00,VWS V14.01,2013-04-09 00:15:00,
2013-04-08 18:17:00,22.1,4.5,30.06,NNW,327,4.9,5.4,46,0.00,,---,0.00,VWS V14.01,2013-04-09 00:17:00,
2013-04-08 18:19:00,21.9,3.8,30.06,North,0,5.4,5.4,45,0.00,,---,0.00,VWS V14.01,2013-04-09 00:19:00,
2013-04-08 18:20:00,21.9,3.8,30.06,North,0,4.0,6.3,45,0.00,,---,0.00,VWS V14.01,2013-04-09 00:20:00,
2013-04-08 18:22:00,21.9,3.8,30.06,North,4,4.9,6.3,45,0.00,,---,0.00,VWS V14.01,2013-04-09 00:22:00,
2013-04-08 18:24:00,21.9,3.8,30.06,North,357,3.1,6.3,45,0.00,,---,0.00,VWS V14.01,2013-04-09 00:24:00,
2013-04-08 18:25:00,21.7,4.2,30.06,NNW,346,5.8,6.3,46,0.00,,---,0.00,VWS V14.01,2013-04-09 00:25:00,
2013-04-08 18:27:00,21.7,4.2,30.06,North,357,4.9,6.3,46,0.00,,---,0.00,VWS V14.01,2013-04-09 00:27:00,
2013-04-08 18:29:00,21.7,4.2,30.06,North,0,3.6,6.3,46,0.00,,---,0.00,VWS V14.01,2013-04-09 00:29:00,
2013-04-08 18:31:00,21.6,4.0,30.06,NNW,346,5.4,6.3,46,0.00,,---,0.00,VWS V14.01,2013-04-09 00:31:00,
2013-04-08 18:32:00,21.4,3.8,30.06,North,1,3.6,6.3,46,0.00,,---,0.00,VWS V14.01,2013-04-09 00:32:00,
2013-04-08 18:33:00,21.4,3.8,30.06,NNW,343,5.4,6.3,46,0.00,,---,0.00,VWS V14.01,2013-04-09 00:33:00,
2013-04-08 18:34:00,21.4,3.8,30.06,NNW,336,3.6,6.3,46,0.00,,---,0.00,VWS V14.01,2013-04-09 00:34:00,
2013-04-08 18:36:00,21.4,4.3,30.06,NNW,343,2.7,6.3,47,0.00,,---,0.00,VWS V14.01,2013-04-09 00:36:00,
2013-04-08 18:37:00,21.4,4.3,30.06,NW,318,3.1,6.3,47,0.00,,---,0.00,VWS V14.01,2013-04-09 00:37:00,
2013-04-08 18:38:00,21.4,4.3,30.06,NNW,329,5.4,6.3,47,0.00,,---,0.00,VWS V14.01,2013-04-09 00:38:00,
2013-04-08 18:39:00,21.2,4.6,30.06,North,0,4.9,6.3,48,0.00,,---,0.00,VWS V14.01,2013-04-09 00:39:00,
2013-04-08 18:41:00,21.2,4.6,30.06,NNW,345,2.2,6.3,48,0.00,,---,0.00,VWS V14.01,2013-04-09 00:41:00,
2013-04-08 18:42:00,21.2,4.6,30.06,North,0,3.6,6.3,48,0.00,,---,0.00,VWS V14.01,2013-04-09 00:42:00,
2013-04-08 18:43:00,21.0,4.4,30.06,North,5,4.0,8.1,48,0.00,,---,0.00,VWS V14.01,2013-04-09 00:43:00,
2013-04-08 18:45:00,21.0,4.0,30.06,North,4,3.6,8.1,47,0.00,,---,0.00,VWS V14.01,2013-04-09 00:45:00,
2013-04-08 18:46:00,20.8,4.2,30.06,North,10,6.3,6.3,48,0.00,,---,0.00,VWS V14.01,2013-04-09 00:46:00,
2013-04-08 18:47:00,20.8,4.2,30.06,North,353,3.1,6.3,48,0.00,,---,0.00,VWS V14.01,2013-04-09 00:47:00,
2013-04-08 18:48:00,20.8,4.2,30.06,NNW,343,4.9,6.3,48,0.00,,---,0.00,VWS V14.01,2013-04-09 00:48:00,
2013-04-08 18:50:00,20.7,4.1,30.06,NNW,335,3.1,7.6,48,0.00,,---,0.00,VWS V14.01,2013-04-09 00:50:00,
2013-04-08 18:52:00,20.5,3.9,30.06,North,353,5.4,7.6,48,0.00,,---,0.00,VWS V14.01,2013-04-09 00:52:00,
2013-04-08 18:53:00,20.5,3.9,30.06,NNW,345,3.6,7.6,48,0.00,,---,0.00,VWS V14.01,2013-04-09 00:53:00,
2013-04-08 18:55:00,20.3,4.2,30.06,North,0,5.4,7.6,49,0.00,,---,0.00,VWS V14.01,2013-04-09 00:55:00,
2013-04-08 18:58:00,20.3,4.2,30.06,NNW,332,4.0,7.6,49,0.00,,---,0.00,VWS V14.01,2013-04-09 00:58:00,
2013-04-08 19:00:00,20.3,4.6,30.06,NNW,345,3.1,3.1,50,0.00,,---,0.00,VWS V14.01,2013-04-09 01:00:00,
2013-04-08 19:03:00,20.3,5.5,30.06,NW,317,2.2,3.6,52,0.00,,---,0.00,VWS V14.01,2013-04-09 01:03:00,
2013-04-08 19:05:00,20.3,5.5,30.06,WNW,285,4.0,4.0,52,0.00,,---,0.00,VWS V14.01,2013-04-09 01:05:00,
2013-04-08 19:08:00,20.3,5.1,30.06,NW,322,3.6,6.3,51,0.00,,---,0.00,VWS V14.01,2013-04-09 01:08:00,
2013-04-08 19:09:00,20.3,5.1,30.06,NNW,331,3.1,6.3,51,0.00,,---,0.00,VWS V14.01,2013-04-09 01:09:00,
2013-04-08 19:11:00,20.3,5.1,30.06,NNW,343,3.1,6.3,51,0.00,,---,0.00,VWS V14.01,2013-04-09 01:11:00,
2013-04-08 19:13:00,20.3,5.1,30.06,North,353,3.1,6.3,51,0.00,,---,0.00,VWS V14.01,2013-04-09 01:13:00,
2013-04-08 19:14:00,20.1,4.9,30.06,NNW,334,3.1,6.3,51,0.00,,---,0.00,VWS V14.01,2013-04-09 01:14:00,
2013-04-08 19:16:00,19.9,4.7,30.06,NW,324,2.2,4.0,51,0.00,,---,0.00,VWS V14.01,2013-04-09 01:16:00,
2013-04-08 19:18:00,19.9,4.7,30.06,NNW,337,2.7,4.0,51,0.00,,---,0.00,VWS V14.01,2013-04-09 01:18:00,
2013-04-08 19:19:00,19.9,5.2,30.06,NNW,327,2.2,4.9,52,0.00,,---,0.00,VWS V14.01,2013-04-09 01:19:00,
2013-04-08 19:20:00,19.9,5.2,30.06,NNW,328,3.1,4.9,52,0.00,,---,0.00,VWS V14.01,2013-04-09 01:20:00,
2013-04-08 19:22:00,19.9,4.7,30.06,North,357,5.8,5.8,51,0.00,,---,0.00,VWS V14.01,2013-04-09 01:22:00,
2013-04-08 19:23:00,19.8,4.1,30.06,North,353,2.7,6.3,50,0.00,,---,0.00,VWS V14.01,2013-04-09 01:23:00,
2013-04-08 19:24:00,19.6,4.0,30.06,North,353,3.1,6.3,50,0.00,,---,0.00,VWS V14.01,2013-04-09 01:24:00,
2013-04-08 19:25:00,19.6,4.4,30.06,North,0,2.7,6.3,51,0.00,,---,0.00,VWS V14.01,2013-04-09 01:25:00,
2013-04-08 19:27:00,19.6,4.8,30.06,NW,309,3.1,6.3,52,0.00,,---,0.00,VWS V14.01,2013-04-09 01:27:00,
2013-04-08 19:29:00,19.6,4.8,30.06,NW,312,3.1,6.3,52,0.00,,---,0.00,VWS V14.01,2013-04-09 01:29:00,
2013-04-08 19:30:00,19.6,4.8,30.09,NW,311,2.2,2.7,52,0.00,,---,0.00,VWS V14.01,2013-04-09 01:30:00,
2013-04-08 19:32:00,19.6,5.2,30.09,NW,310,3.1,3.6,53,0.00,,---,0.00,VWS V14.01,2013-04-09 01:32:00,
2013-04-08 19:34:00,19.6,5.2,30.09,WNW,301,3.1,4.0,53,0.00,,---,0.00,VWS V14.01,2013-04-09 01:34:00,
2013-04-08 19:35:00,19.6,5.2,30.09,West,279,4.9,4.9,53,0.00,,---,0.00,VWS V14.01,2013-04-09 01:35:00,
2013-04-08 19:38:00,19.4,5.1,30.09,NW,305,2.7,5.4,53,0.00,,---,0.00,VWS V14.01,2013-04-09 01:38:00,
2013-04-08 19:40:00,19.4,5.1,30.09,NW,324,3.6,5.4,53,0.00,,---,0.00,VWS V14.01,2013-04-09 01:40:00,
2013-04-08 19:41:00,19.2,4.9,30.09,NW,312,4.9,5.4,53,0.00,,---,0.00,VWS V14.01,2013-04-09 01:41:00,
2013-04-08 19:43:00,19.2,4.9,30.09,NW,313,3.1,5.4,53,0.00,,---,0.00,VWS V14.01,2013-04-09 01:43:00,
2013-04-08 19:45:00,19.0,4.7,30.09,NW,306,2.2,5.4,53,0.00,,---,0.00,VWS V14.01,2013-04-09 01:45:00,
2013-04-08 19:47:00,19.0,4.7,30.09,WNW,302,2.2,2.7,53,0.00,,---,0.00,VWS V14.01,2013-04-09 01:47:00,
2013-04-08 19:48:00,19.0,5.1,30.09,NW,316,2.7,4.0,54,0.00,,---,0.00,VWS V14.01,2013-04-09 01:48:00,
2013-04-08 19:51:00,18.9,5.0,30.09,NW,320,3.6,4.0,54,0.00,,---,0.00,VWS V14.01,2013-04-09 01:51:00,
2013-04-08 19:52:00,18.9,5.0,30.09,NW,309,2.7,4.0,54,0.00,,---,0.00,VWS V14.01,2013-04-09 01:52:00,
2013-04-08 19:53:00,18.7,4.8,30.09,North,353,5.4,5.4,54,0.00,,---,0.00,VWS V14.01,2013-04-09 01:53:00,
2013-04-08 19:56:00,18.7,4.4,30.09,NW,308,3.6,5.4,53,0.00,,---,0.00,VWS V14.01,2013-04-09 01:56:00,
2013-04-08 19:57:00,18.5,4.2,30.09,NW,326,3.1,5.4,53,0.00,,---,0.00,VWS V14.01,2013-04-09 01:57:00,
2013-04-08 19:58:00,18.5,4.2,30.09,NW,312,2.7,5.4,53,0.00,,---,0.00,VWS V14.01,2013-04-09 01:58:00,
2013-04-08 20:01:00,18.5,4.2,30.09,WNW,294,3.1,3.6,53,0.00,,---,0.00,VWS V14.01,2013-04-09 02:01:00,
2013-04-08 20:02:00,18.5,4.2,30.09,WNW,298,3.6,3.6,53,0.00,,---,0.00,VWS V14.01,2013-04-09 02:02:00,
2013-04-08 20:03:00,18.3,4.5,30.09,NW,316,3.6,3.6,54,0.00,,---,0.00,VWS V14.01,2013-04-09 02:03:00,
2013-04-08 20:04:00,18.3,4.5,30.09,North,353,3.1,4.9,54,0.00,,---,0.00,VWS V14.01,2013-04-09 02:04:00,
2013-04-08 20:06:00,18.3,4.1,30.09,NW,311,2.7,4.9,53,0.00,,---,0.00,VWS V14.01,2013-04-09 02:06:00,
2013-04-08 20:07:00,18.3,4.5,30.09,NW,311,2.7,4.9,54,0.00,,---,0.00,VWS V14.01,2013-04-09 02:07:00,
2013-04-08 20:09:00,18.1,4.3,30.09,NW,313,2.7,4.9,54,0.00,,---,0.00,VWS V14.01,2013-04-09 02:09:00,
2013-04-08 20:10:00,18.1,4.3,30.09,NW,317,3.6,4.9,54,0.00,,---,0.00,VWS V14.01,2013-04-09 02:10:00,
2013-04-08 20:12:00,18.1,4.3,30.09,NW,320,3.1,4.9,54,0.00,,---,0.00,VWS V14.01,2013-04-09 02:12:00,
2013-04-08 20:15:00,18.1,4.3,30.09,NW,325,3.6,3.6,54,0.00,,---,0.00,VWS V14.01,2013-04-09 02:15:00,
2013-04-08 20:16:00,18.0,3.7,30.09,NW,325,4.0,6.3,53,0.00,,---,0.00,VWS V14.01,2013-04-09 02:16:00,
2013-04-08 20:17:00,18.0,3.7,30.09,NW,320,3.1,6.3,53,0.00,,---,0.00,VWS V14.01,2013-04-09 02:17:00,
2013-04-08 20:20:00,17.8,3.6,30.09,NNW,330,3.1,6.3,53,0.00,,---,0.00,VWS V14.01,2013-04-09 02:20:00,
2013-04-08 20:21:00,17.8,3.6,30.09,NNW,328,3.1,6.3,53,0.00,,---,0.00,VWS V14.01,2013-04-09 02:21:00,
2013-04-08 20:22:00,17.8,3.6,30.09,NNW,340,2.7,6.3,53,0.00,,---,0.00,VWS V14.01,2013-04-09 02:22:00,
2013-04-08 20:25:00,17.8,4.0,30.09,NW,307,2.7,6.3,54,0.00,,---,0.00,VWS V14.01,2013-04-09 02:25:00,
2013-04-08 20:26:00,17.8,3.6,30.09,WNW,303,2.7,6.3,53,0.00,,---,0.00,VWS V14.01,2013-04-09 02:26:00,
2013-04-08 20:27:00,17.8,3.6,30.09,WNW,303,2.7,6.3,53,0.00,,---,0.00,VWS V14.01,2013-04-09 02:27:00,
2013-04-08 20:30:00,17.8,4.0,30.11,NW,314,2.7,3.1,54,0.00,,---,0.00,VWS V14.01,2013-04-09 02:30:00,
2013-04-08 20:32:00,17.8,4.0,30.11,NW,321,4.0,4.0,54,0.00,,---,0.00,VWS V14.01,2013-04-09 02:32:00,
2013-04-08 20:37:00,17.6,3.8,30.11,NW,326,3.1,3.1,54,0.00,,---,0.00,VWS V14.01,2013-04-09 02:37:00,
2013-04-08 20:38:00,17.6,3.8,30.11,NW,326,3.1,3.1,54,0.00,,---,0.00,VWS V14.01,2013-04-09 02:38:00,
2013-04-08 20:43:00,17.4,3.6,30.11,North,8,5.4,5.4,54,0.00,,---,0.00,VWS V14.01,2013-04-09 02:43:00,
2013-04-08 20:44:00,17.4,3.2,30.11,NNW,331,2.7,5.8,53,0.00,,---,0.00,VWS V14.01,2013-04-09 02:44:00,
2013-04-08 20:48:00,17.4,3.2,30.11,NW,322,2.7,3.6,53,0.00,,---,0.00,VWS V14.01,2013-04-09 02:48:00,
2013-04-08 20:49:00,17.4,3.6,30.11,NNW,345,2.2,3.6,54,0.00,,---,0.00,VWS V14.01,2013-04-09 02:49:00,
2013-04-08 20:53:00,17.2,3.5,30.11,NW,319,3.1,5.4,54,0.00,,---,0.00,VWS V14.01,2013-04-09 02:53:00,
2013-04-08 20:54:00,17.1,3.3,30.11,NW,318,2.7,5.4,54,0.00,,---,0.00,VWS V14.01,2013-04-09 02:54:00,
2013-04-08 20:58:00,17.1,3.3,30.11,NW,323,4.0,5.4,54,0.00,,---,0.00,VWS V14.01,2013-04-09 02:58:00,
2013-04-08 20:59:00,17.1,3.3,30.11,NW,325,2.2,5.4,54,0.00,,---,0.00,VWS V14.01,2013-04-09 02:59:00,
2013-04-08 21:00:00,17.1,3.3,30.11,NW,325,2.7,5.4,54,0.00,,---,0.00,VWS V14.01,2013-04-09 03:00:00,
2013-04-08 21:03:00,17.1,3.3,30.11,NW,316,2.7,4.0,54,0.00,,---,0.00,VWS V14.01,2013-04-09 03:03:00,
2013-04-08 21:04:00,16.9,3.1,30.11,North,350,3.1,6.3,54,0.00,,---,0.00,VWS V14.01,2013-04-09 03:04:00,
2013-04-08 21:05:00,16.9,3.1,30.11,NW,322,3.6,6.3,54,0.00,,---,0.00,VWS V14.01,2013-04-09 03:05:00,
2013-04-08 21:08:00,16.9,3.1,30.11,NW,318,2.7,6.3,54,0.00,,---,0.00,VWS V14.01,2013-04-09 03:08:00,
2013-04-08 21:09:00,16.9,3.1,30.11,NW,323,2.2,6.3,54,0.00,,---,0.00,VWS V14.01,2013-04-09 03:09:00,
2013-04-08 21:10:00,16.9,3.1,30.11,NNW,331,2.2,6.3,54,0.00,,---,0.00,VWS V14.01,2013-04-09 03:10:00,
2013-04-08 21:13:00,16.9,3.5,30.11,NNW,341,3.1,6.3,55,0.00,,---,0.00,VWS V14.01,2013-04-09 03:13:00,
2013-04-08 21:15:00,16.9,3.5,30.11,NNW,327,2.7,6.3,55,0.00,,---,0.00,VWS V14.01,2013-04-09 03:15:00,
2013-04-08 21:18:00,16.9,3.5,30.11,NW,324,2.2,2.7,55,0.00,,---,0.00,VWS V14.01,2013-04-09 03:18:00,
2013-04-08 21:20:00,16.9,3.5,30.11,NW,324,2.2,2.7,55,0.00,,---,0.00,VWS V14.01,2013-04-09 03:20:00,
2013-04-08 21:23:00,16.9,3.5,30.11,NW,324,0.0,2.7,55,0.00,,---,0.00,VWS V14.01,2013-04-09 03:23:00,
2013-04-08 21:25:00,16.9,3.5,30.11,NW,324,2.2,2.7,55,0.00,,---,0.00,VWS V14.01,2013-04-09 03:25:00,
2013-04-08 21:29:00,16.9,3.5,30.11,NW,324,2.2,2.7,55,0.00,,---,0.00,VWS V14.01,2013-04-09 03:29:00,
2013-04-08 21:30:00,16.9,3.5,30.11,NW,324,0.0,2.7,55,0.00,,---,0.00,VWS V14.01,2013-04-09 03:30:00,
2013-04-08 21:32:00,16.9,3.9,30.11,NW,324,0.0,0.0,56,0.00,,---,0.00,VWS V14.01,2013-04-09 03:32:00,
2013-04-08 21:34:00,16.9,3.9,30.11,NW,324,0.0,0.0,56,0.00,,---,0.00,VWS V14.01,2013-04-09 03:34:00,
2013-04-08 21:36:00,16.7,3.7,30.11,NW,324,0.0,0.0,56,0.00,,---,0.00,VWS V14.01,2013-04-09 03:36:00,
2013-04-08 21:37:00,16.7,3.7,30.11,NW,324,0.0,0.0,56,0.00,,---,0.00,VWS V14.01,2013-04-09 03:37:00,
2013-04-08 21:38:00,16.7,3.7,30.11,NW,324,0.0,0.0,56,0.00,,---,0.00,VWS V14.01,2013-04-09 03:38:00,
2013-04-08 21:39:00,16.7,3.7,30.11,NW,324,0.0,0.0,56,0.00,,---,0.00,VWS V14.01,2013-04-09 03:39:00,
2013-04-08 21:42:00,16.7,4.1,30.11,NW,324,0.0,0.0,57,0.00,,---,0.00,VWS V14.01,2013-04-09 03:42:00,
2013-04-08 21:43:00,16.7,4.1,30.11,NW,324,0.0,0.0,57,0.00,,---,0.00,VWS V14.01,2013-04-09 03:43:00,
2013-04-08 21:44:00,16.7,4.1,30.11,NW,324,0.0,0.0,57,0.00,,---,0.00,VWS V14.01,2013-04-09 03:44:00,
2013-04-08 21:47:00,16.7,4.1,30.11,NW,324,0.0,0.0,57,0.00,,---,0.00,VWS V14.01,2013-04-09 03:47:00,
2013-04-08 21:48:00,16.7,4.1,30.11,NW,324,0.0,0.0,57,0.00,,---,0.00,VWS V14.01,2013-04-09 03:48:00,
2013-04-08 21:50:00,16.7,4.1,30.11,NW,324,0.0,0.0,57,0.00,,---,0.00,VWS V14.01,2013-04-09 03:50:00,
2013-04-08 21:52:00,16.7,4.1,30.11,NW,324,0.0,0.0,57,0.00,,---,0.00,VWS V14.01,2013-04-09 03:52:00,
2013-04-08 21:53:00,16.7,4.1,30.11,NW,324,0.0,0.0,57,0.00,,---,0.00,VWS V14.01,2013-04-09 03:53:00,
2013-04-08 21:55:00,16.5,4.0,30.11,NW,324,0.0,0.0,57,0.00,,---,0.00,VWS V14.01,2013-04-09 03:55:00,
2013-04-08 21:57:00,16.5,4.0,30.11,NW,325,0.0,0.0,57,0.00,,---,0.00,VWS V14.01,2013-04-09 03:57:00,
2013-04-08 21:58:00,16.5,4.0,30.11,NW,325,0.0,0.0,57,0.00,,---,0.00,VWS V14.01,2013-04-09 03:58:00,
2013-04-08 22:00:00,16.5,4.0,30.11,NW,325,0.0,2.7,57,0.00,,---,0.00,VWS V14.01,2013-04-09 04:00:00,
2013-04-08 22:05:00,16.5,4.3,30.11,NW,325,0.0,0.0,58,0.00,,---,0.00,VWS V14.01,2013-04-09 04:05:00,
2013-04-08 22:10:00,16.3,4.2,30.11,NW,325,0.0,0.0,58,0.00,,---,0.00,VWS V14.01,2013-04-09 04:10:00,
2013-04-08 22:15:00,16.2,4.0,30.11,NW,325,0.0,0.0,58,0.00,,---,0.00,VWS V14.01,2013-04-09 04:15:00,
2013-04-08 22:20:00,16.2,4.0,30.14,NW,325,0.0,0.0,58,0.00,,---,0.00,VWS V14.01,2013-04-09 04:20:00,
2013-04-08 22:25:00,16.0,3.8,30.14,NW,325,0.0,0.0,58,0.00,,---,0.00,VWS V14.01,2013-04-09 04:25:00,
2013-04-08 22:26:00,16.0,3.8,30.14,NW,325,0.0,0.0,58,0.00,,---,0.00,VWS V14.01,2013-04-09 04:26:00,
2013-04-08 22:30:00,16.0,3.8,30.14,North,357,0.0,0.0,58,0.00,,---,0.00,VWS V14.01,2013-04-09 04:30:00,
2013-04-08 22:31:00,16.0,3.8,30.14,North,357,0.0,0.0,58,0.00,,---,0.00,VWS V14.01,2013-04-09 04:31:00,
2013-04-08 22:36:00,15.8,4.0,30.14,North,357,0.0,0.0,59,0.00,,---,0.00,VWS V14.01,2013-04-09 04:36:00,
2013-04-08 22:37:00,15.8,4.0,30.14,North,357,0.0,2.2,59,0.00,,---,0.00,VWS V14.01,2013-04-09 04:37:00,
2013-04-08 22:41:00,15.6,4.2,30.14,North,357,0.0,2.2,60,0.00,,---,0.00,VWS V14.01,2013-04-09 04:41:00,
2013-04-08 22:42:00,15.6,4.2,30.14,North,357,0.0,2.2,60,0.00,,---,0.00,VWS V14.01,2013-04-09 04:42:00,
2013-04-08 22:46:00,15.4,4.1,30.14,North,357,0.0,0.0,60,0.00,,---,0.00,VWS V14.01,2013-04-09 04:46:00,
2013-04-08 22:47:00,15.4,4.1,30.14,North,357,0.0,0.0,60,0.00,,---,0.00,VWS V14.01,2013-04-09 04:47:00,
2013-04-08 22:52:00,15.4,4.1,30.14,North,357,0.0,0.0,60,0.00,,---,0.00,VWS V14.01,2013-04-09 04:52:00,
2013-04-08 22:57:00,15.3,4.2,30.14,North,357,0.0,0.0,61,0.00,,---,0.00,VWS V14.01,2013-04-09 04:57:00,
2013-04-08 22:58:00,15.3,4.2,30.14,North,357,0.0,0.0,61,0.00,,---,0.00,VWS V14.01,2013-04-09 04:58:00,
2013-04-08 23:02:00,15.3,4.6,30.14,North,357,0.0,0.0,62,0.00,,---,0.00,VWS V14.01,2013-04-09 05:02:00,
2013-04-08 23:03:00,15.3,4.6,30.14,North,357,0.0,0.0,62,0.00,,---,0.00,VWS V14.01,2013-04-09 05:03:00,
2013-04-08 23:07:00,15.1,4.4,30.14,North,357,0.0,0.0,62,0.00,,---,0.00,VWS V14.01,2013-04-09 05:07:00,
2013-04-08 23:08:00,15.1,4.4,30.14,North,357,0.0,0.0,62,0.00,,---,0.00,VWS V14.01,2013-04-09 05:08:00,
2013-04-08 23:09:00,15.1,4.4,30.14,North,357,0.0,0.0,62,0.00,,---,0.00,VWS V14.01,2013-04-09 05:09:00,
2013-04-08 23:12:00,15.1,4.4,30.14,North,357,0.0,0.0,62,0.00,,---,0.00,VWS V14.01,2013-04-09 05:12:00,
2013-04-08 23:13:00,15.1,4.4,30.14,North,357,0.0,0.0,62,0.00,,---,0.00,VWS V14.01,2013-04-09 05:13:00,
2013-04-08 23:14:00,15.1,4.8,30.14,North,357,0.0,0.0,63,0.00,,---,0.00,VWS V14.01,2013-04-09 05:14:00,
2013-04-08 23:18:00,15.1,5.1,30.14,North,357,0.0,0.0,64,0.00,,---,0.00,VWS V14.01,2013-04-09 05:18:00,
2013-04-08 23:19:00,14.9,4.9,30.14,North,357,0.0,0.0,64,0.00,,---,0.00,VWS V14.01,2013-04-09 05:19:00,
2013-04-08 23:23:00,14.9,4.9,30.14,North,357,0.0,0.0,64,0.00,,---,0.00,VWS V14.01,2013-04-09 05:23:00,
2013-04-08 23:25:00,14.9,4.9,30.14,North,357,0.0,0.0,64,0.00,,---,0.00,VWS V14.01,2013-04-09 05:25:00,
2013-04-08 23:28:00,14.7,5.1,30.14,North,357,0.0,0.0,65,0.00,,---,0.00,VWS V14.01,2013-04-09 05:28:00,
2013-04-08 23:29:00,14.7,5.1,30.14,North,357,0.0,0.0,65,0.00,,---,0.00,VWS V14.01,2013-04-09 05:29:00,
2013-04-08 23:30:00,14.7,5.1,30.14,North,357,0.0,0.0,65,0.00,,---,0.00,VWS V14.01,2013-04-09 05:30:00,
2013-04-08 23:33:00,14.7,5.1,30.14,North,357,0.0,0.0,65,0.00,,---,0.00,VWS V14.01,2013-04-09 05:33:00,
2013-04-08 23:34:00,14.5,4.9,30.14,North,357,0.0,0.0,65,0.00,,---,0.00,VWS V14.01,2013-04-09 05:34:00,
2013-04-08 23:35:00,14.5,4.9,30.14,North,357,0.0,0.0,65,0.00,,---,0.00,VWS V14.01,2013-04-09 05:35:00,
2013-04-08 23:38:00,14.5,4.9,30.14,North,357,0.0,0.0,65,0.00,,---,0.00,VWS V14.01,2013-04-09 05:38:00,
2013-04-08 23:39:00,14.4,4.8,30.14,North,357,0.0,0.0,65,0.00,,---,0.00,VWS V14.01,2013-04-09 05:39:00,
2013-04-08 23:40:00,14.4,4.8,30.14,North,357,0.0,0.0,65,0.00,,---,0.00,VWS V14.01,2013-04-09 05:40:00,
2013-04-08 23:43:00,14.4,4.8,30.14,North,357,0.0,0.0,65,0.00,,---,0.00,VWS V14.01,2013-04-09 05:43:00,
2013-04-08 23:45:00,14.4,4.8,30.14,North,357,0.0,0.0,65,0.00,,---,0.00,VWS V14.01,2013-04-09 05:45:00,
2013-04-08 23:49:00,14.2,4.9,30.14,North,357,0.0,0.0,66,0.00,,---,0.00,VWS V14.01,2013-04-09 05:49:00,
2013-04-08 23:50:00,14.2,4.9,30.14,North,357,0.0,0.0,66,0.00,,---,0.00,VWS V14.01,2013-04-09 05:50:00,
2013-04-08 23:54:00,14.2,4.9,30.14,North,357,0.0,0.0,66,0.00,,---,0.00,VWS V14.01,2013-04-09 05:54:00,
2013-04-08 23:55:00,14.2,4.9,30.14,North,357,0.0,0.0,66,0.00,,---,0.00,VWS V14.01,2013-04-09 05:55:00,
2013-04-08 23:59:00,14.2,4.9,30.14,North,357,0.0,0.0,66,0.00,,---,0.00,VWS V14.01,2013-04-09 05:59:00,